Time,TemperatureF,DewpointF,PressureIn,WindDirection,WindDirectionDegrees,WindSpeedMPH,WindSpeedGustMPH,Humidity,HourlyPrecipIn,Conditions,Clouds,dailyrainin,SoftwareType,DateUTC
2013-02-09 00:00:00,25.0,24.5,30.29,NNE,22,19.0,23.0,98,0.00,,OVC023,0.00,VWS V14.00,2013-02-09 05:00:00,
2013-02-09 00:01:00,25.0,24.5,30.29,NNE,22,14.0,23.0,98,0.00,,OVC018,0.00,VWS V14.00,2013-02-09 05:01:00,
2013-02-09 00:05:00,26.0,25.8,30.29,NNE,22,15.0,20.0,99,0.00,,OVC018,0.00,VWS V14.00,2013-02-09 05:05:00,
2013-02-09 00:06:00,26.0,25.8,30.29,NE,45,18.0,20.0,99,0.00,,OVC018,0.00,VWS V14.00,2013-02-09 05:06:00,
2013-02-09 00:10:00,25.0,24.3,30.29,North,360,20.0,23.0,97,0.00,,OVC018,0.00,VWS V14.00,2013-02-09 05:10:00,
2013-02-09 00:11:00,25.0,24.3,30.29,North,360,18.0,23.0,97,0.00,,OVC018,0.00,VWS V14.00,2013-02-09 05:11:00,
2013-02-09 00:12:00,25.0,24.3,30.29,North,360,18.0,23.0,97,0.00,,OVC018,0.00,VWS V14.00,2013-02-09 05:12:00,
2013-02-09 00:16:00,26.0,25.5,30.30,North,360,19.0,21.0,98,0.00,,OVC018,0.00,VWS V14.00,2013-02-09 05:16:00,
2013-02-09 00:17:00,26.0,25.5,30.30,North,360,16.0,21.0,98,0.00,,OVC018,0.00,VWS V14.00,2013-02-09 05:17:00,
2013-02-09 00:18:00,26.0,25.5,30.30,North,360,18.0,20.0,98,0.00,,OVC018,0.00,VWS V14.00,2013-02-09 05:18:00,
2013-02-09 00:22:00,26.0,25.5,30.30,NNE,22,15.0,21.0,98,0.00,,OVC018,0.00,VWS V14.00,2013-02-09 05:22:00,
2013-02-09 00:23:00,26.0,25.8,30.30,North,360,16.0,17.0,99,0.00,,OVC018,0.00,VWS V14.00,2013-02-09 05:23:00,
2013-02-09 00:25:00,26.0,25.8,30.30,North,360,15.0,21.0,99,0.00,,OVC018,0.00,VWS V14.00,2013-02-09 05:25:00,
2013-02-09 00:28:00,26.0,25.8,30.30,North,360,15.0,22.0,99,0.00,,OVC018,0.00,VWS V14.00,2013-02-09 05:28:00,
2013-02-09 00:31:00,26.0,26.0,30.30,North,360,15.0,23.0,100,0.00,,OVC018,0.00,VWS V14.00,2013-02-09 05:31:00,
2013-02-09 00:33:00,26.0,25.8,30.30,North,360,20.0,20.0,99,0.00,,OVC018,0.00,VWS V14.00,2013-02-09 05:33:00,
2013-02-09 00:34:00,26.0,26.0,30.30,North,360,18.0,20.0,100,0.00,,OVC018,0.00,VWS V14.00,2013-02-09 05:34:00,
2013-02-09 00:36:00,26.0,25.8,30.30,North,360,18.0,23.0,99,0.00,,OVC018,0.00,VWS V14.00,2013-02-09 05:36:00,
2013-02-09 00:38:00,26.0,25.8,30.30,North,360,12.0,20.0,99,0.00,,OVC018,0.00,VWS V14.00,2013-02-09 05:38:00,
2013-02-09 00:42:00,26.0,25.5,30.30,North,360,16.0,21.0,98,0.00,,OVC018,0.00,VWS V14.00,2013-02-09 05:42:00,
2013-02-09 00:43:00,26.0,25.5,30.31,North,360,13.0,20.0,98,0.00,,OVC018,0.00,VWS V14.00,2013-02-09 05:43:00,
2013-02-09 00:45:00,26.0,25.8,30.31,North,360,18.0,21.0,99,0.00,,OVC018,0.00,VWS V14.00,2013-02-09 05:45:00,
2013-02-09 00:47:00,26.0,25.5,30.31,NNE,22,17.0,22.0,98,0.00,,OVC018,0.00,VWS V14.00,2013-02-09 05:47:00,
2013-02-09 00:48:00,26.0,25.5,30.31,North,360,20.0,22.0,98,0.00,,OVC018,0.00,VWS V14.00,2013-02-09 05:48:00,
2013-02-09 00:49:00,26.0,25.3,30.31,North,360,21.0,23.0,97,0.00,,OVC018,0.00,VWS V14.00,2013-02-09 05:49:00,
2013-02-09 00:50:00,26.0,25.5,30.31,North,360,21.0,23.0,98,0.00,,OVC018,0.00,VWS V14.00,2013-02-09 05:50:00,
2013-02-09 00:53:00,26.0,25.5,30.31,North,360,16.0,17.0,98,0.00,,OVC018,0.00,VWS V14.00,2013-02-09 05:53:00,
2013-02-09 00:54:00,26.0,25.5,30.31,North,360,19.0,21.0,98,0.00,,OVC018,0.00,VWS V14.00,2013-02-09 05:54:00,
2013-02-09 00:58:00,26.0,25.5,30.31,North,360,17.0,17.0,98,0.00,,OVC018,0.00,VWS V14.00,2013-02-09 05:58:00,
2013-02-09 00:59:00,25.0,24.5,30.31,NNE,22,17.0,21.0,98,0.00,,OVC018,0.00,VWS V14.00,2013-02-09 05:59:00,
2013-02-09 01:00:00,26.0,25.5,30.31,North,360,16.0,21.0,98,0.00,,OVC018,0.00,VWS V14.00,2013-02-09 06:00:00,
2013-02-09 01:03:00,26.0,25.8,30.31,North,360,14.0,15.0,99,0.00,,OVC029,0.00,VWS V14.00,2013-02-09 06:03:00,
2013-02-09 01:04:00,26.0,26.0,30.31,North,360,16.0,20.0,100,0.00,,OVC029,0.00,VWS V14.00,2013-02-09 06:04:00,
2013-02-09 01:05:00,25.0,24.5,30.31,North,360,18.0,21.0,98,0.00,,OVC029,0.00,VWS V14.00,2013-02-09 06:05:00,
2013-02-09 01:08:00,26.0,25.0,30.31,North,360,16.0,20.0,96,0.00,,OVC029,0.00,VWS V14.00,2013-02-09 06:08:00,
2013-02-09 01:09:00,26.0,25.3,30.31,North,360,17.0,20.0,97,0.00,,OVC029,0.00,VWS V14.00,2013-02-09 06:09:00,
2013-02-09 01:11:00,26.0,25.3,30.31,North,360,16.0,20.0,97,0.00,,OVC029,0.00,VWS V14.00,2013-02-09 06:11:00,
2013-02-09 01:13:00,26.0,25.3,30.31,North,360,19.0,19.0,97,0.00,,OVC029,0.00,VWS V14.00,2013-02-09 06:13:00,
2013-02-09 01:15:00,26.0,25.5,30.32,North,360,17.0,21.0,98,0.00,,OVC029,0.00,VWS V14.00,2013-02-09 06:15:00,
2013-02-09 01:17:00,26.0,25.0,30.32,North,360,16.0,21.0,96,0.00,,OVC029,0.00,VWS V14.00,2013-02-09 06:17:00,
2013-02-09 01:18:00,26.0,25.3,30.32,North,360,16.0,20.0,98,0.00,,OVC029,0.00,VWS V14.00,2013-02-09 06:18:00,
2013-02-09 01:20:00,26.0,25.3,30.32,NNE,22,16.0,21.0,97,0.00,,OVC029,0.00,VWS V14.00,2013-02-09 06:20:00,
2013-02-09 01:23:00,26.0,25.5,30.32,North,360,21.0,23.0,98,0.00,,OVC029,0.00,VWS V14.00,2013-02-09 06:23:00,
2013-02-09 01:24:00,26.0,25.5,30.31,North,360,21.0,22.0,98,0.00,,OVC029,0.00,VWS V14.00,2013-02-09 06:24:00,
2013-02-09 01:26:00,26.0,25.8,30.31,NNE,22,16.0,22.0,99,0.00,,OVC029,0.00,VWS V14.00,2013-02-09 06:26:00,
2013-02-09 01:28:00,26.0,26.0,30.31,NNE,22,15.0,21.0,100,0.00,,OVC029,0.00,VWS V14.00,2013-02-09 06:28:00,
2013-02-09 01:29:00,25.0,24.8,30.31,NNE,22,20.0,21.0,99,0.00,,OVC029,0.00,VWS V14.00,2013-02-09 06:29:00,
2013-02-09 01:30:00,25.0,24.8,30.31,North,360,16.0,24.0,99,0.00,,OVC029,0.00,VWS V14.00,2013-02-09 06:30:00,
2013-02-09 01:31:00,25.0,24.8,30.31,NNE,22,19.0,24.0,99,0.00,,OVC029,0.00,VWS V14.00,2013-02-09 06:31:00,
2013-02-09 01:34:00,25.0,24.8,30.31,North,360,18.0,18.0,99,0.00,,OVC029,0.00,VWS V14.00,2013-02-09 06:34:00,
2013-02-09 01:35:00,25.0,24.8,30.31,NNE,22,16.0,18.0,99,0.00,,OVC029,0.00,VWS V14.00,2013-02-09 06:35:00,
2013-02-09 01:36:00,25.0,24.8,30.31,North,360,11.0,20.0,99,0.00,,OVC029,0.00,VWS V14.00,2013-02-09 06:36:00,
2013-02-09 01:40:00,25.0,25.0,30.31,NNE,22,14.0,18.0,100,0.00,,OVC029,0.00,VWS V14.00,2013-02-09 06:40:00,
2013-02-09 01:41:00,25.0,25.0,30.31,North,360,16.0,18.0,100,0.00,,OVC029,0.00,VWS V14.00,2013-02-09 06:41:00,
2013-02-09 01:46:00,25.0,24.5,30.32,North,360,18.0,21.0,98,0.00,,OVC029,0.00,VWS V14.00,2013-02-09 06:46:00,
2013-02-09 01:47:00,26.0,25.8,30.32,North,360,15.0,21.0,99,0.00,,OVC029,0.00,VWS V14.00,2013-02-09 06:47:00,
2013-02-09 01:51:00,26.0,25.3,30.32,North,360,16.0,21.0,97,0.00,,OVC029,0.00,VWS V14.00,2013-02-09 06:51:00,
2013-02-09 01:52:00,26.0,25.3,30.32,North,360,20.0,21.0,97,0.00,,OVC029,0.00,VWS V14.00,2013-02-09 06:52:00,
2013-02-09 01:53:00,26.0,25.3,30.32,North,360,16.0,21.0,97,0.00,,OVC029,0.00,VWS V14.00,2013-02-09 06:53:00,
2013-02-09 01:56:00,25.0,24.5,30.32,North,360,17.0,19.0,98,0.00,,OVC029,0.00,VWS V14.00,2013-02-09 06:56:00,
2013-02-09 01:57:00,26.0,25.5,30.32,NNE,22,15.0,19.0,98,0.00,,OVC029,0.00,VWS V14.00,2013-02-09 06:57:00,
2013-02-09 01:58:00,26.0,25.8,30.32,NE,45,13.0,16.0,99,0.00,,OVC029,0.00,VWS V14.00,2013-02-09 06:58:00,
2013-02-09 01:59:00,26.0,25.8,30.32,North,360,15.0,18.0,99,0.00,,OVC029,0.00,VWS V14.00,2013-02-09 06:59:00,
2013-02-09 02:01:00,26.0,25.8,30.32,North,360,20.0,21.0,99,0.00,,OVC026,0.00,VWS V14.00,2013-02-09 07:01:00,
2013-02-09 02:03:00,26.0,25.8,30.32,North,360,17.0,21.0,99,0.00,,OVC026,0.00,VWS V14.00,2013-02-09 07:03:00,
2013-02-09 02:04:00,26.0,25.8,30.32,North,360,15.0,20.0,99,0.00,,OVC026,0.00,VWS V14.00,2013-02-09 07:04:00,
2013-02-09 02:07:00,26.0,26.0,30.32,North,360,12.0,20.0,100,0.00,,OVC026,0.00,VWS V14.00,2013-02-09 07:07:00,
2013-02-09 02:08:00,26.0,26.0,30.32,North,360,14.0,15.0,100,0.00,,OVC026,0.00,VWS V14.00,2013-02-09 07:08:00,
2013-02-09 02:09:00,26.0,26.0,30.32,North,360,15.0,16.0,100,0.00,,OVC026,0.00,VWS V14.00,2013-02-09 07:09:00,
2013-02-09 02:10:00,26.0,26.0,30.32,North,360,21.0,21.0,100,0.00,,OVC026,0.00,VWS V14.00,2013-02-09 07:10:00,
2013-02-09 02:12:00,26.0,26.0,30.32,North,360,20.0,21.0,100,0.00,,OVC026,0.00,VWS V14.00,2013-02-09 07:12:00,
2013-02-09 02:13:00,26.0,25.8,30.32,North,360,15.0,17.0,99,0.00,,OVC026,0.00,VWS V14.00,2013-02-09 07:13:00,
2013-02-09 02:15:00,26.0,26.0,30.32,North,360,16.0,20.0,100,0.00,,OVC026,0.00,VWS V14.00,2013-02-09 07:15:00,
2013-02-09 02:18:00,26.0,26.0,30.32,NNW,337,21.0,23.0,100,0.00,,OVC026,0.00,VWS V14.00,2013-02-09 07:18:00,
2013-02-09 02:20:00,25.0,25.0,30.32,NNW,337,18.0,26.0,100,0.00,,OVC026,0.00,VWS V14.00,2013-02-09 07:20:00,
2013-02-09 02:21:00,25.0,25.0,30.32,NNW,337,21.0,26.0,100,0.00,,OVC026,0.00,VWS V14.00,2013-02-09 07:21:00,
2013-02-09 02:23:00,26.0,26.0,30.32,NNW,337,20.0,22.0,100,0.00,,OVC026,0.00,VWS V14.00,2013-02-09 07:23:00,
2013-02-09 02:25:00,25.0,25.0,30.32,NNW,337,15.0,23.0,100,0.00,,OVC026,0.00,VWS V14.00,2013-02-09 07:25:00,
2013-02-09 02:26:00,26.0,26.0,30.32,North,360,20.0,23.0,100,0.00,,OVC026,0.00,VWS V14.00,2013-02-09 07:26:00,
2013-02-09 02:28:00,26.0,26.0,30.32,NNW,337,19.0,20.0,100,0.00,,OVC026,0.00,VWS V14.00,2013-02-09 07:28:00,
2013-02-09 02:31:00,25.0,25.0,30.32,NNW,337,17.0,26.0,100,0.00,,OVC026,0.00,VWS V14.00,2013-02-09 07:31:00,
2013-02-09 02:32:00,25.0,25.0,30.32,North,360,21.0,26.0,100,0.00,,OVC026,0.00,VWS V14.00,2013-02-09 07:32:00,
2013-02-09 02:33:00,25.0,25.0,30.32,NNW,337,21.0,21.0,100,0.00,,OVC026,0.00,VWS V14.00,2013-02-09 07:33:00,
2013-02-09 02:34:00,25.0,25.0,30.33,North,360,18.0,24.0,100,0.00,,OVC026,0.00,VWS V14.00,2013-02-09 07:34:00,
2013-02-09 02:36:00,25.0,25.0,30.33,NNW,337,18.0,24.0,100,0.00,,OVC026,0.00,VWS V14.00,2013-02-09 07:36:00,
2013-02-09 02:38:00,25.0,25.0,30.33,North,360,19.0,20.0,100,0.00,,OVC026,0.00,VWS V14.00,2013-02-09 07:38:00,
2013-02-09 02:39:00,25.0,25.0,30.33,North,360,15.0,22.0,100,0.00,,OVC026,0.00,VWS V14.00,2013-02-09 07:39:00,
2013-02-09 02:42:00,25.0,25.0,30.33,NNW,337,19.0,23.0,100,0.00,,OVC026,0.00,VWS V14.00,2013-02-09 07:42:00,
2013-02-09 02:43:00,25.0,25.0,30.33,NNW,337,21.0,23.0,100,0.00,,OVC026,0.00,VWS V14.00,2013-02-09 07:43:00,
2013-02-09 02:44:00,25.0,25.0,30.33,NNW,337,15.0,23.0,100,0.00,,OVC026,0.00,VWS V14.00,2013-02-09 07:44:00,
2013-02-09 02:45:00,25.0,25.0,30.33,NNW,337,18.0,23.0,100,0.00,,OVC026,0.00,VWS V14.00,2013-02-09 07:45:00,
2013-02-09 02:48:00,25.0,25.0,30.33,NNW,337,18.0,20.0,100,0.00,,OVC026,0.00,VWS V14.00,2013-02-09 07:48:00,
2013-02-09 02:49:00,25.0,25.0,30.33,NNW,337,16.0,22.0,100,0.00,,OVC026,0.00,VWS V14.00,2013-02-09 07:49:00,
2013-02-09 02:50:00,25.0,25.0,30.33,NNW,337,15.0,22.0,100,0.00,,OVC026,0.00,VWS V14.00,2013-02-09 07:50:00,
2013-02-09 02:51:00,25.0,25.0,30.33,NNW,337,20.0,23.0,100,0.00,,OVC026,0.00,VWS V14.00,2013-02-09 07:51:00,
2013-02-09 02:55:00,25.0,25.0,30.33,NNW,337,17.0,22.0,100,0.00,,OVC026,0.00,VWS V14.00,2013-02-09 07:55:00,
2013-02-09 02:56:00,25.0,25.0,30.33,NNW,337,18.0,22.0,100,0.00,,OVC026,0.00,VWS V14.00,2013-02-09 07:56:00,
2013-02-09 02:57:00,25.0,25.0,30.33,North,360,18.0,22.0,100,0.00,,OVC026,0.00,VWS V14.00,2013-02-09 07:57:00,
2013-02-09 03:01:00,25.0,25.0,30.33,North,360,16.0,21.0,100,0.00,,OVC024,0.00,VWS V14.00,2013-02-09 08:01:00,
2013-02-09 03:02:00,25.0,25.0,30.33,NW,315,18.0,21.0,100,0.00,,OVC024,0.00,VWS V14.00,2013-02-09 08:02:00,
2013-02-09 03:07:00,25.0,25.0,30.33,NNW,337,16.0,20.0,100,0.00,,OVC024,0.00,VWS V14.00,2013-02-09 08:07:00,
2013-02-09 03:08:00,25.0,25.0,30.33,NNW,337,19.0,21.0,100,0.00,,OVC024,0.00,VWS V14.00,2013-02-09 08:08:00,
2013-02-09 03:12:00,25.0,25.0,30.33,NW,315,16.0,22.0,100,0.00,,OVC024,0.00,VWS V14.00,2013-02-09 08:12:00,
2013-02-09 03:13:00,25.0,25.0,30.33,NW,315,16.0,22.0,100,0.00,,OVC024,0.00,VWS V14.00,2013-02-09 08:13:00,
2013-02-09 03:15:00,25.0,25.0,30.33,NW,315,19.0,27.0,100,0.00,,OVC024,0.00,VWS V14.00,2013-02-09 08:15:00,
2013-02-09 03:18:00,25.0,25.0,30.33,NNW,337,18.0,27.0,100,0.00,,OVC024,0.00,VWS V14.00,2013-02-09 08:18:00,
2013-02-09 03:20:00,25.0,25.0,30.33,NNW,337,14.0,23.0,100,0.00,,OVC024,0.00,VWS V14.00,2013-02-09 08:20:00,
2013-02-09 03:23:00,25.0,25.0,30.33,NNW,337,16.0,18.0,100,0.00,,OVC024,0.00,VWS V14.00,2013-02-09 08:23:00,
2013-02-09 03:24:00,25.0,25.0,30.34,NNW,337,20.0,21.0,100,0.00,,OVC024,0.00,VWS V14.00,2013-02-09 08:24:00,
2013-02-09 03:25:00,25.0,25.0,30.34,NNW,337,13.0,21.0,100,0.00,,OVC024,0.00,VWS V14.00,2013-02-09 08:25:00,
2013-02-09 03:26:00,25.0,25.0,30.34,NNW,337,19.0,21.0,100,0.00,,OVC024,0.00,VWS V14.00,2013-02-09 08:26:00,
2013-02-09 03:29:00,25.0,25.0,30.34,North,360,16.0,18.0,100,0.00,,OVC024,0.00,VWS V14.00,2013-02-09 08:29:00,
2013-02-09 03:30:00,25.0,25.0,30.34,NNW,337,16.0,21.0,100,0.00,,OVC024,0.00,VWS V14.00,2013-02-09 08:30:00,
2013-02-09 03:31:00,25.0,25.0,30.34,NW,315,16.0,21.0,100,0.00,,OVC024,0.00,VWS V14.00,2013-02-09 08:31:00,
2013-02-09 03:33:00,25.0,25.0,30.34,North,360,19.0,19.0,100,0.00,,OVC024,0.00,VWS V14.00,2013-02-09 08:33:00,
2013-02-09 03:34:00,25.0,25.0,30.33,North,360,16.0,19.0,100,0.00,,OVC024,0.00,VWS V14.00,2013-02-09 08:34:00,
2013-02-09 03:36:00,25.0,25.0,30.33,North,360,20.0,24.0,100,0.00,,OVC024,0.00,VWS V14.00,2013-02-09 08:36:00,
2013-02-09 03:38:00,25.0,24.8,30.33,NNW,337,19.0,20.0,99,0.00,,OVC024,0.00,VWS V14.00,2013-02-09 08:38:00,
2013-02-09 03:40:00,25.0,24.8,30.33,NNW,337,16.0,23.0,99,0.00,,OVC024,0.00,VWS V14.00,2013-02-09 08:40:00,
2013-02-09 03:42:00,25.0,25.0,30.33,North,360,12.0,23.0,100,0.00,,OVC024,0.00,VWS V14.00,2013-02-09 08:42:00,
2013-02-09 03:44:00,25.0,25.0,30.34,NNW,337,15.0,16.0,100,0.00,,OVC024,0.00,VWS V14.00,2013-02-09 08:44:00,
2013-02-09 03:45:00,25.0,25.0,30.34,North,360,16.0,18.0,100,0.00,,OVC024,0.00,VWS V14.00,2013-02-09 08:45:00,
2013-02-09 03:46:00,25.0,25.0,30.34,NNW,337,18.0,19.0,100,0.00,,OVC024,0.00,VWS V14.00,2013-02-09 08:46:00,
2013-02-09 03:48:00,25.0,25.0,30.34,NNW,337,21.0,22.0,100,0.00,,OVC024,0.00,VWS V14.00,2013-02-09 08:48:00,
2013-02-09 03:49:00,25.0,25.0,30.34,North,360,20.0,24.0,100,0.00,,OVC024,0.00,VWS V14.00,2013-02-09 08:49:00,
2013-02-09 03:51:00,25.0,24.8,30.34,North,360,20.0,24.0,99,0.00,,OVC024,0.00,VWS V14.00,2013-02-09 08:51:00,
2013-02-09 03:52:00,25.0,24.3,30.34,North,360,14.0,24.0,97,0.00,,OVC024,0.00,VWS V14.00,2013-02-09 08:52:00,
2013-02-09 03:54:00,25.0,24.8,30.34,North,360,14.0,20.0,99,0.00,,OVC024,0.00,VWS V14.00,2013-02-09 08:54:00,
2013-02-09 03:55:00,25.0,24.8,30.34,North,360,15.0,20.0,99,0.00,,OVC024,0.00,VWS V14.00,2013-02-09 08:55:00,
2013-02-09 03:57:00,25.0,25.0,30.34,North,360,19.0,20.0,100,0.00,,OVC024,0.00,VWS V14.00,2013-02-09 08:57:00,
2013-02-09 04:00:00,25.0,23.5,30.34,North,360,12.0,18.0,94,0.00,,OVC024,0.00,VWS V14.00,2013-02-09 09:00:00,
2013-02-09 04:03:00,25.0,22.8,30.34,North,360,16.0,20.0,91,0.00,,OVC026,0.00,VWS V14.00,2013-02-09 09:03:00,
2013-02-09 04:05:00,25.0,23.8,30.34,North,360,15.0,17.0,95,0.00,,OVC026,0.00,VWS V14.00,2013-02-09 09:05:00,
2013-02-09 04:08:00,25.0,25.0,30.34,NNW,337,16.0,20.0,100,0.00,,OVC026,0.00,VWS V14.00,2013-02-09 09:08:00,
2013-02-09 04:11:00,25.0,25.0,30.34,North,360,18.0,21.0,100,0.00,,OVC026,0.00,VWS V14.00,2013-02-09 09:11:00,
2013-02-09 04:12:00,25.0,25.0,30.34,North,360,14.0,21.0,100,0.00,,OVC026,0.00,VWS V14.00,2013-02-09 09:12:00,
2013-02-09 04:13:00,25.0,25.0,30.34,North,360,18.0,21.0,100,0.00,,OVC026,0.00,VWS V14.00,2013-02-09 09:13:00,
2013-02-09 04:16:00,25.0,25.0,30.35,North,360,14.0,20.0,100,0.00,,OVC026,0.00,VWS V14.00,2013-02-09 09:16:00,
2013-02-09 04:17:00,25.0,24.3,30.35,NNW,337,18.0,21.0,97,0.00,,OVC026,0.00,VWS V14.00,2013-02-09 09:17:00,
2013-02-09 04:19:00,25.0,24.0,30.35,North,360,18.0,22.0,96,0.00,,OVC026,0.00,VWS V14.00,2013-02-09 09:19:00,
2013-02-09 04:21:00,25.0,24.5,30.35,NNW,337,13.0,22.0,98,0.00,,OVC026,0.00,VWS V14.00,2013-02-09 09:21:00,
2013-02-09 04:22:00,25.0,24.8,30.35,North,360,12.0,22.0,99,0.00,,OVC026,0.00,VWS V14.00,2013-02-09 09:22:00,
2013-02-09 04:23:00,25.0,25.0,30.35,North,360,14.0,17.0,100,0.00,,OVC026,0.00,VWS V14.00,2013-02-09 09:23:00,
2013-02-09 04:24:00,25.0,24.8,30.35,NNW,337,17.0,20.0,99,0.00,,OVC026,0.00,VWS V14.00,2013-02-09 09:24:00,
2013-02-09 04:26:00,25.0,24.0,30.35,NNW,337,15.0,20.0,96,0.00,,OVC026,0.00,VWS V14.00,2013-02-09 09:26:00,
2013-02-09 04:28:00,25.0,24.3,30.35,North,360,14.0,18.0,97,0.00,,OVC026,0.00,VWS V14.00,2013-02-09 09:28:00,
2013-02-09 04:30:00,25.0,24.5,30.35,NNW,337,14.0,18.0,98,0.00,,OVC026,0.00,VWS V14.00,2013-02-09 09:30:00,
2013-02-09 04:32:00,25.0,24.5,30.35,NW,315,17.0,18.0,98,0.00,,OVC026,0.00,VWS V14.00,2013-02-09 09:32:00,
2013-02-09 04:33:00,25.0,24.5,30.36,NNW,337,16.0,20.0,98,0.00,,OVC026,0.00,VWS V14.00,2013-02-09 09:33:00,
2013-02-09 04:34:00,25.0,24.5,30.36,NNW,337,15.0,20.0,98,0.00,,OVC026,0.00,VWS V14.00,2013-02-09 09:34:00,
2013-02-09 04:36:00,25.0,23.8,30.36,North,360,18.0,20.0,98,0.00,,OVC026,0.00,VWS V14.00,2013-02-09 09:36:00,
2013-02-09 04:38:00,25.0,23.3,30.36,North,360,15.0,20.0,93,0.00,,OVC026,0.00,VWS V14.00,2013-02-09 09:38:00,
2013-02-09 04:39:00,25.0,23.3,30.36,North,360,13.0,20.0,93,0.00,,OVC026,0.00,VWS V14.00,2013-02-09 09:39:00,
2013-02-09 04:41:00,25.0,22.2,30.36,North,360,15.0,20.0,89,0.00,,OVC026,0.00,VWS V14.00,2013-02-09 09:41:00,
2013-02-09 04:44:00,25.0,23.3,30.36,North,360,13.0,18.0,93,0.00,,OVC026,0.00,VWS V14.00,2013-02-09 09:44:00,
2013-02-09 04:46:00,25.0,23.8,30.36,North,360,15.0,18.0,95,0.00,,OVC026,0.00,VWS V14.00,2013-02-09 09:46:00,
2013-02-09 04:47:00,25.0,23.8,30.36,North,360,18.0,20.0,95,0.00,,OVC026,0.00,VWS V14.00,2013-02-09 09:47:00,
2013-02-09 04:50:00,25.0,24.0,30.36,NNW,337,15.0,18.0,96,0.00,,OVC026,0.00,VWS V14.00,2013-02-09 09:50:00,
2013-02-09 04:52:00,25.0,24.3,30.36,North,360,16.0,19.0,97,0.00,,OVC026,0.00,VWS V14.00,2013-02-09 09:52:00,
2013-02-09 04:53:00,25.0,24.3,30.36,North,360,13.0,19.0,97,0.00,,OVC026,0.00,VWS V14.00,2013-02-09 09:53:00,
2013-02-09 04:56:00,25.0,24.0,30.37,North,360,10.0,17.0,96,0.00,,OVC026,0.00,VWS V14.00,2013-02-09 09:56:00,
2013-02-09 04:58:00,25.0,24.0,30.37,North,360,15.0,15.0,96,0.00,,OVC026,0.00,VWS V14.00,2013-02-09 09:58:00,
2013-02-09 04:59:00,25.0,24.0,30.37,North,360,14.0,16.0,96,0.00,,OVC026,0.00,VWS V14.00,2013-02-09 09:59:00,
2013-02-09 05:01:00,25.0,24.0,30.37,North,360,15.0,18.0,96,0.00,,OVC026,0.00,VWS V14.00,2013-02-09 10:01:00,
2013-02-09 05:04:00,25.0,23.5,30.37,North,360,18.0,21.0,94,0.00,,OVC025,0.00,VWS V14.00,2013-02-09 10:04:00,
2013-02-09 05:05:00,25.0,23.5,30.37,North,360,16.0,22.0,94,0.00,,OVC025,0.00,VWS V14.00,2013-02-09 10:05:00,
2013-02-09 05:06:00,24.0,22.3,30.37,North,360,16.0,22.0,93,0.00,,OVC025,0.00,VWS V14.00,2013-02-09 10:06:00,
2013-02-09 05:09:00,24.0,23.5,30.37,North,360,13.0,20.0,94,0.00,,OVC025,0.00,VWS V14.00,2013-02-09 10:09:00,
2013-02-09 05:10:00,25.0,23.5,30.37,North,360,15.0,20.0,94,0.00,,OVC025,0.00,VWS V14.00,2013-02-09 10:10:00,
2013-02-09 05:13:00,25.0,24.0,30.38,North,360,15.0,18.0,96,0.00,,OVC025,0.00,VWS V14.00,2013-02-09 10:13:00,
2013-02-09 05:14:00,25.0,24.3,30.38,North,360,13.0,18.0,97,0.00,,OVC025,0.00,VWS V14.00,2013-02-09 10:14:00,
2013-02-09 05:16:00,25.0,24.5,30.38,North,360,16.0,21.0,98,0.00,,OVC025,0.00,VWS V14.00,2013-02-09 10:16:00,
2013-02-09 05:19:00,25.0,24.5,30.38,NNW,337,15.0,20.0,98,0.00,,OVC025,0.00,VWS V14.00,2013-02-09 10:19:00,
2013-02-09 05:21:00,24.0,23.3,30.38,NNW,337,16.0,20.0,97,0.00,,OVC025,0.00,VWS V14.00,2013-02-09 10:21:00,
2013-02-09 05:22:00,24.0,23.3,30.38,North,360,20.0,20.0,97,0.00,,OVC025,0.00,VWS V14.00,2013-02-09 10:22:00,
2013-02-09 05:25:00,24.0,23.3,30.38,NNW,337,17.0,19.0,97,0.00,,OVC025,0.00,VWS V14.00,2013-02-09 10:25:00,
2013-02-09 05:26:00,24.0,23.3,30.38,North,360,18.0,19.0,97,0.00,,OVC025,0.00,VWS V14.00,2013-02-09 10:26:00,
2013-02-09 05:27:00,24.0,23.3,30.38,North,360,16.0,19.0,97,0.00,,OVC025,0.00,VWS V14.00,2013-02-09 10:27:00,
2013-02-09 05:29:00,24.0,23.3,30.38,North,360,17.0,19.0,97,0.00,,OVC025,0.00,VWS V14.00,2013-02-09 10:29:00,
2013-02-09 05:31:00,24.0,23.3,30.38,NNW,337,15.0,19.0,97,0.00,,OVC025,0.00,VWS V14.00,2013-02-09 10:31:00,
2013-02-09 05:33:00,24.0,23.3,30.38,North,360,13.0,19.0,97,0.00,,OVC025,0.00,VWS V14.00,2013-02-09 10:33:00,
2013-02-09 05:35:00,24.0,23.0,30.38,North,360,15.0,17.0,96,0.00,,OVC025,0.00,VWS V14.00,2013-02-09 10:35:00,
2013-02-09 05:38:00,24.0,23.5,30.38,NW,315,14.0,17.0,98,0.00,,OVC025,0.00,VWS V14.00,2013-02-09 10:38:00,
2013-02-09 05:39:00,24.0,23.5,30.38,NNW,337,17.0,19.0,98,0.00,,OVC025,0.00,VWS V14.00,2013-02-09 10:39:00,
2013-02-09 05:41:00,24.0,23.8,30.38,North,360,12.0,20.0,99,0.00,,OVC025,0.00,VWS V14.00,2013-02-09 10:41:00,
2013-02-09 05:43:00,25.0,25.0,30.38,North,360,14.0,20.0,100,0.00,,OVC025,0.00,VWS V14.00,2013-02-09 10:43:00,
2013-02-09 05:44:00,25.0,25.0,30.38,North,360,14.0,18.0,100,0.00,,OVC025,0.00,VWS V14.00,2013-02-09 10:44:00,
2013-02-09 05:47:00,24.0,23.8,30.38,North,360,15.0,18.0,99,0.00,,OVC025,0.00,VWS V14.00,2013-02-09 10:47:00,
2013-02-09 05:48:00,24.0,23.5,30.38,North,360,15.0,20.0,98,0.00,,OVC025,0.00,VWS V14.00,2013-02-09 10:48:00,
2013-02-09 05:49:00,24.0,23.5,30.38,North,360,17.0,18.0,98,0.00,,OVC025,0.00,VWS V14.00,2013-02-09 10:49:00,
2013-02-09 05:52:00,24.0,23.8,30.38,North,360,19.0,20.0,99,0.00,,OVC025,0.00,VWS V14.00,2013-02-09 10:52:00,
2013-02-09 05:54:00,24.0,23.0,30.39,North,360,13.0,18.0,96,0.00,,OVC025,0.00,VWS V14.00,2013-02-09 10:54:00,
2013-02-09 05:55:00,24.0,23.0,30.39,North,360,17.0,18.0,96,0.00,,OVC025,0.00,VWS V14.00,2013-02-09 10:55:00,
2013-02-09 05:57:00,24.0,23.3,30.39,North,360,16.0,18.0,97,0.00,,OVC025,0.00,VWS V14.00,2013-02-09 10:57:00,
2013-02-09 05:59:00,24.0,23.0,30.39,North,360,16.0,19.0,96,0.00,,OVC025,0.00,VWS V14.00,2013-02-09 10:59:00,
2013-02-09 06:00:00,24.0,23.0,30.39,North,360,12.0,19.0,96,0.00,,OVC025,0.00,VWS V14.00,2013-02-09 11:00:00,
2013-02-09 06:02:00,24.0,23.8,30.39,North,360,14.0,19.0,99,0.00,,OVC022,0.00,VWS V14.00,2013-02-09 11:02:00,
2013-02-09 06:05:00,24.0,23.5,30.39,North,360,13.0,19.0,98,0.00,,OVC022,0.00,VWS V14.00,2013-02-09 11:05:00,
2013-02-09 06:06:00,24.0,23.5,30.39,North,360,10.0,19.0,98,0.00,,OVC022,0.00,VWS V14.00,2013-02-09 11:06:00,
2013-02-09 06:08:00,24.0,23.3,30.39,North,360,16.0,20.0,97,0.00,,OVC022,0.00,VWS V14.00,2013-02-09 11:08:00,
2013-02-09 06:10:00,24.0,23.3,30.39,North,360,14.0,20.0,97,0.00,,OVC022,0.00,VWS V14.00,2013-02-09 11:10:00,
2013-02-09 06:11:00,24.0,23.3,30.39,North,360,16.0,20.0,97,0.00,,OVC022,0.00,VWS V14.00,2013-02-09 11:11:00,
2013-02-09 06:13:00,24.0,23.3,30.39,North,360,13.0,20.0,97,0.00,,OVC022,0.00,VWS V14.00,2013-02-09 11:13:00,
2013-02-09 06:14:00,24.0,22.8,30.40,North,360,14.0,18.0,95,0.00,,OVC022,0.00,VWS V14.00,2013-02-09 11:14:00,
2013-02-09 06:16:00,24.0,22.8,30.40,North,360,14.0,18.0,95,0.00,,OVC022,0.00,VWS V14.00,2013-02-09 11:16:00,
2013-02-09 06:18:00,24.0,22.5,30.40,North,360,15.0,16.0,94,0.00,,OVC022,0.00,VWS V14.00,2013-02-09 11:18:00,
2013-02-09 06:21:00,24.0,23.0,30.40,North,360,13.0,18.0,96,0.00,,OVC022,0.00,VWS V14.00,2013-02-09 11:21:00,
2013-02-09 06:22:00,24.0,23.0,30.40,North,360,14.0,18.0,96,0.00,,OVC022,0.00,VWS V14.00,2013-02-09 11:22:00,
2013-02-09 06:23:00,24.0,23.0,30.40,North,360,17.0,18.0,96,0.00,,OVC022,0.00,VWS V14.00,2013-02-09 11:23:00,
2013-02-09 06:26:00,24.0,22.5,30.40,North,360,16.0,19.0,94,0.00,,OVC022,0.00,VWS V14.00,2013-02-09 11:26:00,
2013-02-09 06:27:00,24.0,22.5,30.40,North,360,16.0,19.0,94,0.00,,OVC022,0.00,VWS V14.00,2013-02-09 11:27:00,
2013-02-09 06:28:00,24.0,22.5,30.40,North,360,13.0,19.0,94,0.00,,OVC022,0.00,VWS V14.00,2013-02-09 11:28:00,
2013-02-09 06:29:00,24.0,23.0,30.40,North,360,13.0,15.0,96,0.00,,OVC022,0.00,VWS V14.00,2013-02-09 11:29:00,
2013-02-09 06:32:00,24.0,22.8,30.40,North,360,16.0,18.0,95,0.00,,OVC022,0.00,VWS V14.00,2013-02-09 11:32:00,
2013-02-09 06:33:00,24.0,23.0,30.40,North,360,14.0,18.0,96,0.00,,OVC022,0.00,VWS V14.00,2013-02-09 11:33:00,
2013-02-09 06:34:00,24.0,23.0,30.40,North,360,15.0,17.0,96,0.00,,OVC022,0.00,VWS V14.00,2013-02-09 11:34:00,
2013-02-09 06:38:00,24.0,22.8,30.40,North,360,12.0,12.0,95,0.00,,OVC022,0.00,VWS V14.00,2013-02-09 11:38:00,
2013-02-09 06:40:00,24.0,22.8,30.40,North,360,16.0,20.0,94,0.00,,OVC022,0.00,VWS V14.00,2013-02-09 11:40:00,
2013-02-09 06:41:00,24.0,23.3,30.40,North,360,16.0,20.0,97,0.00,,OVC022,0.00,VWS V14.00,2013-02-09 11:41:00,
2013-02-09 06:43:00,24.0,23.3,30.40,North,360,17.0,18.0,97,0.00,,OVC022,0.00,VWS V14.00,2013-02-09 11:43:00,
2013-02-09 06:45:00,24.0,23.3,30.40,North,360,16.0,20.0,97,0.00,,OVC022,0.00,VWS V14.00,2013-02-09 11:45:00,
2013-02-09 06:46:00,24.0,23.3,30.40,North,360,14.0,20.0,97,0.00,,OVC022,0.00,VWS V14.00,2013-02-09 11:46:00,
2013-02-09 06:47:00,24.0,23.3,30.40,North,360,17.0,20.0,97,0.00,,OVC022,0.00,VWS V14.00,2013-02-09 11:47:00,
2013-02-09 06:49:00,23.0,22.5,30.40,North,360,15.0,19.0,98,0.00,,OVC022,0.00,VWS V14.00,2013-02-09 11:49:00,
2013-02-09 06:51:00,24.0,23.3,30.40,North,360,13.0,19.0,97,0.00,,OVC022,0.00,VWS V14.00,2013-02-09 11:51:00,
2013-02-09 06:52:00,24.0,23.3,30.40,NNE,22,16.0,19.0,97,0.00,,OVC022,0.00,VWS V14.00,2013-02-09 11:52:00,
2013-02-09 06:54:00,23.0,21.8,30.41,North,360,9.0,15.0,95,0.00,,OVC022,0.00,VWS V14.00,2013-02-09 11:54:00,
2013-02-09 06:57:00,24.0,23.0,30.41,North,360,10.0,15.0,96,0.00,,OVC022,0.00,VWS V14.00,2013-02-09 11:57:00,
2013-02-09 06:58:00,24.0,23.0,30.41,North,360,10.0,15.0,96,0.00,,OVC022,0.00,VWS V14.00,2013-02-09 11:58:00,
2013-02-09 07:00:00,23.0,22.3,30.41,NNE,22,11.0,15.0,97,0.00,,OVC022,0.00,VWS V14.00,2013-02-09 12:00:00,
2013-02-09 07:02:00,23.0,22.3,30.41,NNE,22,11.0,15.0,97,0.00,,OVC022,0.00,VWS V14.00,2013-02-09 12:02:00,
2013-02-09 07:03:00,23.0,22.0,30.41,NE,45,6.0,11.0,96,0.00,,OVC022,0.00,VWS V14.00,2013-02-09 12:03:00,
2013-02-09 07:06:00,24.0,23.5,30.41,North,360,13.0,17.0,98,0.00,,OVC022,0.00,VWS V14.00,2013-02-09 12:06:00,
2013-02-09 07:07:00,24.0,23.3,30.41,North,360,14.0,17.0,97,0.00,,OVC022,0.00,VWS V14.00,2013-02-09 12:07:00,
2013-02-09 07:08:00,24.0,23.3,30.41,North,360,13.0,17.0,97,0.00,,OVC022,0.00,VWS V14.00,2013-02-09 12:08:00,
2013-02-09 07:09:00,24.0,23.0,30.41,North,360,12.0,13.0,96,0.00,,OVC022,0.00,VWS V14.00,2013-02-09 12:09:00,
2013-02-09 07:11:00,23.0,22.5,30.41,North,360,14.0,17.0,98,0.00,,OVC022,0.00,VWS V14.00,2013-02-09 12:11:00,
2013-02-09 07:13:00,23.0,22.8,30.41,North,360,16.0,18.0,99,0.00,,OVC022,0.00,VWS V14.00,2013-02-09 12:13:00,
2013-02-09 07:14:00,23.0,22.8,30.40,North,360,16.0,18.0,99,0.00,,OVC022,0.00,VWS V14.00,2013-02-09 12:14:00,
2013-02-09 07:16:00,23.0,22.8,30.40,North,360,16.0,18.0,99,0.00,,OVC022,0.00,VWS V14.00,2013-02-09 12:16:00,
2013-02-09 07:18:00,23.0,22.5,30.40,North,360,14.0,18.0,98,0.00,,OVC022,0.00,VWS V14.00,2013-02-09 12:18:00,
2013-02-09 07:20:00,23.0,22.5,30.40,NNE,22,10.0,16.0,98,0.00,,OVC019,0.00,VWS V14.00,2013-02-09 12:20:00,
2013-02-09 07:22:00,23.0,22.5,30.40,NNE,22,10.0,16.0,98,0.00,,OVC019,0.00,VWS V14.00,2013-02-09 12:22:00,
2013-02-09 07:23:00,23.0,22.3,30.40,NE,45,8.0,16.0,97,0.00,,OVC019,0.00,VWS V14.00,2013-02-09 12:23:00,
2013-02-09 07:24:00,23.0,22.3,30.41,NNE,22,9.0,11.0,97,0.00,,OVC019,0.00,VWS V14.00,2013-02-09 12:24:00,
2013-02-09 07:26:00,23.0,22.3,30.41,NNE,22,10.0,12.0,97,0.00,,OVC019,0.00,VWS V14.00,2013-02-09 12:26:00,
2013-02-09 07:28:00,23.0,22.3,30.41,North,360,8.0,12.0,97,0.00,,OVC019,0.00,VWS V14.00,2013-02-09 12:28:00,
2013-02-09 07:29:00,23.0,22.5,30.41,North,360,11.0,11.0,98,0.00,,OVC019,0.00,VWS V14.00,2013-02-09 12:29:00,
2013-02-09 07:32:00,23.0,22.5,30.41,NE,45,10.0,16.0,98,0.00,,OVC019,0.00,VWS V14.00,2013-02-09 12:32:00,
2013-02-09 07:33:00,23.0,22.5,30.41,NNE,22,9.0,9.0,98,0.00,,OVC019,0.00,VWS V14.00,2013-02-09 12:33:00,
2013-02-09 07:34:00,23.0,22.5,30.41,North,360,8.0,12.0,98,0.00,,OVC019,0.00,VWS V14.00,2013-02-09 12:34:00,
2013-02-09 07:35:00,23.0,22.5,30.41,North,360,9.0,12.0,98,0.00,,OVC019,0.00,VWS V14.00,2013-02-09 12:35:00,
2013-02-09 07:38:00,23.0,22.5,30.41,North,360,11.0,11.0,98,0.00,,OVC019,0.00,VWS V14.00,2013-02-09 12:38:00,
2013-02-09 07:39:00,23.0,22.8,30.41,North,360,11.0,14.0,99,0.00,,OVC019,0.00,VWS V14.00,2013-02-09 12:39:00,
2013-02-09 07:40:00,23.0,22.8,30.41,NNE,22,15.0,17.0,99,0.00,,OVC019,0.00,VWS V14.00,2013-02-09 12:40:00,
2013-02-09 07:43:00,23.0,22.3,30.41,North,360,13.0,16.0,97,0.00,,OVC019,0.00,VWS V14.00,2013-02-09 12:43:00,
2013-02-09 07:45:00,23.0,22.5,30.41,North,360,13.0,16.0,98,0.00,,OVC019,0.00,VWS V14.00,2013-02-09 12:45:00,
2013-02-09 07:46:00,23.0,22.5,30.41,North,360,12.0,16.0,98,0.00,,OVC019,0.00,VWS V14.00,2013-02-09 12:46:00,
2013-02-09 07:49:00,23.0,22.3,30.41,North,360,14.0,15.0,97,0.00,,OVC019,0.00,VWS V14.00,2013-02-09 12:49:00,
2013-02-09 07:51:00,23.0,22.8,30.41,North,360,15.0,16.0,99,0.00,,OVC019,0.00,VWS V14.00,2013-02-09 12:51:00,
2013-02-09 07:53:00,23.0,22.8,30.41,NNE,22,8.0,16.0,99,0.00,,OVC019,0.00,VWS V14.00,2013-02-09 12:53:00,
2013-02-09 07:54:00,23.0,22.5,30.42,NE,45,13.0,13.0,98,0.00,,OVC019,0.00,VWS V14.00,2013-02-09 12:54:00,
2013-02-09 07:56:00,23.0,22.3,30.42,NE,45,8.0,14.0,97,0.00,,OVC019,0.00,VWS V14.00,2013-02-09 12:56:00,
2013-02-09 07:57:00,23.0,22.3,30.42,NE,45,8.0,14.0,97,0.00,,OVC019,0.00,VWS V14.00,2013-02-09 12:57:00,
2013-02-09 07:58:00,23.0,22.3,30.42,NE,45,8.0,11.0,97,0.00,,OVC019,0.00,VWS V14.00,2013-02-09 12:58:00,
2013-02-09 08:01:00,23.0,22.8,30.42,North,360,11.0,13.0,99,0.00,,OVC019,0.00,VWS V14.00,2013-02-09 13:01:00,
2013-02-09 08:02:00,23.0,22.8,30.42,NNE,22,12.0,14.0,99,0.00,,OVC017,0.00,VWS V14.00,2013-02-09 13:02:00,
2013-02-09 08:03:00,23.0,22.8,30.42,North,360,10.0,10.0,99,0.00,,OVC017,0.00,VWS V14.00,2013-02-09 13:03:00,
2013-02-09 08:05:00,23.0,22.5,30.42,North,360,10.0,14.0,98,0.00,,OVC017,0.00,VWS V14.00,2013-02-09 13:05:00,
2013-02-09 08:07:00,23.0,22.3,30.42,North,360,13.0,15.0,97,0.00,,OVC017,0.00,VWS V14.00,2013-02-09 13:07:00,
2013-02-09 08:08:00,23.0,22.3,30.42,North,360,13.0,14.0,97,0.00,,OVC017,0.00,VWS V14.00,2013-02-09 13:08:00,
2013-02-09 08:10:00,23.0,22.3,30.42,NE,45,6.0,15.0,97,0.00,,OVC017,0.00,VWS V14.00,2013-02-09 13:10:00,
2013-02-09 08:13:00,23.0,22.3,30.42,NE,45,11.0,13.0,97,0.00,,OVC017,0.00,VWS V14.00,2013-02-09 13:13:00,
2013-02-09 08:15:00,23.0,22.0,30.43,NNE,22,9.0,14.0,96,0.00,,OVC017,0.00,VWS V14.00,2013-02-09 13:15:00,
2013-02-09 08:19:00,23.0,22.0,30.43,North,360,10.0,13.0,96,0.00,,OVC017,0.00,VWS V14.00,2013-02-09 13:19:00,
2013-02-09 08:20:00,23.0,22.0,30.43,North,360,8.0,13.0,96,0.00,,OVC017,0.00,VWS V14.00,2013-02-09 13:20:00,
2013-02-09 08:22:00,23.0,22.0,30.43,North,360,9.0,13.0,96,0.00,,OVC017,0.00,VWS V14.00,2013-02-09 13:22:00,
2013-02-09 08:24:00,23.0,22.0,30.44,North,360,8.0,9.0,96,0.00,,OVC017,0.00,VWS V14.00,2013-02-09 13:24:00,
2013-02-09 08:25:00,23.0,22.0,30.44,North,360,8.0,9.0,96,0.00,,OVC017,0.00,VWS V14.00,2013-02-09 13:25:00,
2013-02-09 08:26:00,23.0,22.0,30.44,North,360,8.0,9.0,96,0.00,,OVC017,0.00,VWS V14.00,2013-02-09 13:26:00,
2013-02-09 08:28:00,23.0,22.0,30.44,North,360,8.0,11.0,96,0.00,,OVC017,0.00,VWS V14.00,2013-02-09 13:28:00,
2013-02-09 08:30:00,23.0,22.3,30.44,North,360,11.0,14.0,97,0.00,,OVC017,0.00,VWS V14.00,2013-02-09 13:30:00,
2013-02-09 08:31:00,23.0,22.5,30.44,NNW,337,11.0,14.0,98,0.00,,OVC017,0.00,VWS V14.00,2013-02-09 13:31:00,
2013-02-09 08:34:00,23.0,22.3,30.44,North,360,11.0,13.0,97,0.00,,OVC017,0.00,VWS V14.00,2013-02-09 13:34:00,
2013-02-09 08:35:00,23.0,22.3,30.44,North,360,10.0,13.0,97,0.00,,OVC017,0.00,VWS V14.00,2013-02-09 13:35:00,
2013-02-09 08:37:00,23.0,22.3,30.44,North,360,10.0,13.0,97,0.00,,OVC017,0.00,VWS V14.00,2013-02-09 13:37:00,
2013-02-09 08:39:00,23.0,22.0,30.44,North,360,8.0,10.0,96,0.00,,OVC017,0.00,VWS V14.00,2013-02-09 13:39:00,
2013-02-09 08:41:00,23.0,21.8,30.44,North,360,8.0,10.0,95,0.00,,OVC017,0.00,VWS V14.00,2013-02-09 13:41:00,
2013-02-09 08:42:00,23.0,22.3,30.44,North,360,8.0,11.0,97,0.00,,OVC017,0.00,VWS V14.00,2013-02-09 13:42:00,
2013-02-09 08:43:00,23.0,22.3,30.44,North,360,8.0,10.0,97,0.00,,OVC017,0.00,VWS V14.00,2013-02-09 13:43:00,
2013-02-09 08:46:00,23.0,22.5,30.44,North,360,11.0,12.0,98,0.00,,OVC017,0.00,VWS V14.00,2013-02-09 13:46:00,
2013-02-09 08:48:00,23.0,22.8,30.44,North,360,9.0,10.0,99,0.00,,OVC017,0.00,VWS V14.00,2013-02-09 13:48:00,
2013-02-09 08:50:00,23.0,22.8,30.44,North,360,10.0,11.0,99,0.00,,OVC017,0.00,VWS V14.00,2013-02-09 13:50:00,
2013-02-09 08:51:00,23.0,22.8,30.44,North,360,10.0,11.0,99,0.00,,OVC017,0.00,VWS V14.00,2013-02-09 13:51:00,
2013-02-09 08:52:00,23.0,22.8,30.44,North,360,10.0,11.0,99,0.00,,OVC017,0.00,VWS V14.00,2013-02-09 13:52:00,
2013-02-09 08:53:00,23.0,22.5,30.45,North,360,10.0,10.0,98,0.00,,OVC017,0.00,VWS V14.00,2013-02-09 13:53:00,
2013-02-09 08:55:00,23.0,22.8,30.45,North,360,10.0,12.0,99,0.00,,OVC017,0.00,VWS V14.00,2013-02-09 13:55:00,
2013-02-09 08:57:00,23.0,22.8,30.45,North,360,11.0,12.0,99,0.00,,OVC017,0.00,VWS V14.00,2013-02-09 13:57:00,
2013-02-09 08:58:00,23.0,22.8,30.45,North,360,10.0,10.0,99,0.00,,OVC017,0.00,VWS V14.00,2013-02-09 13:58:00,
2013-02-09 08:59:00,23.0,22.8,30.45,North,360,10.0,11.0,99,0.00,,OVC017,0.00,VWS V14.00,2013-02-09 13:59:00,
2013-02-09 09:00:00,23.0,22.8,30.45,North,360,8.0,11.0,99,0.00,,OVC017,0.00,VWS V14.00,2013-02-09 14:00:00,
2013-02-09 09:03:00,23.0,22.8,30.45,North,360,10.0,10.0,99,0.00,,OVC017,0.00,VWS V14.00,2013-02-09 14:03:00,
2013-02-09 09:04:00,23.0,22.5,30.45,North,360,12.0,13.0,98,0.00,,OVC017,0.00,VWS V14.00,2013-02-09 14:04:00,
2013-02-09 09:05:00,23.0,22.5,30.45,North,360,9.0,13.0,98,0.00,,OVC017,0.00,VWS V14.00,2013-02-09 14:05:00,
2013-02-09 09:07:00,23.0,22.8,30.45,North,360,9.0,13.0,99,0.00,,OVC017,0.00,VWS V14.00,2013-02-09 14:07:00,
2013-02-09 09:09:00,23.0,22.8,30.45,North,360,7.0,10.0,99,0.00,,OVC017,0.00,VWS V14.00,2013-02-09 14:09:00,
2013-02-09 09:11:00,23.0,22.8,30.45,North,360,8.0,13.0,99,0.00,,OVC017,0.00,VWS V14.00,2013-02-09 14:11:00,
2013-02-09 09:12:00,23.0,22.8,30.45,NNE,22,13.0,13.0,100,0.00,,OVC017,0.00,VWS V14.00,2013-02-09 14:12:00,
2013-02-09 09:13:00,23.0,22.8,30.45,NE,45,11.0,11.0,99,0.00,,OVC017,0.00,VWS V14.00,2013-02-09 14:13:00,
2013-02-09 09:14:00,23.0,22.8,30.45,NNE,22,10.0,11.0,99,0.00,,OVC017,0.00,VWS V14.00,2013-02-09 14:14:00,
2013-02-09 09:18:00,23.0,22.5,30.45,NE,45,8.0,15.0,98,0.00,,OVC017,0.00,VWS V14.00,2013-02-09 14:18:00,
2013-02-09 09:21:00,23.0,22.5,30.45,NE,45,8.0,13.0,98,0.00,,OVC017,0.00,VWS V14.00,2013-02-09 14:21:00,
2013-02-09 09:22:00,23.0,22.5,30.45,NE,45,7.0,13.0,98,0.00,,OVC017,0.00,VWS V14.00,2013-02-09 14:22:00,
2013-02-09 09:24:00,23.0,22.3,30.45,NE,45,7.0,10.0,97,0.00,,OVC017,0.00,VWS V14.00,2013-02-09 14:24:00,
2013-02-09 09:25:00,23.0,22.3,30.45,NE,45,8.0,10.0,97,0.00,,OVC017,0.00,VWS V14.00,2013-02-09 14:25:00,
2013-02-09 09:28:00,23.0,22.3,30.45,NE,45,6.0,10.0,97,0.00,,OVC017,0.00,VWS V14.00,2013-02-09 14:28:00,
2013-02-09 09:29:00,23.0,22.3,30.45,North,360,8.0,9.0,97,0.00,,OVC017,0.00,VWS V14.00,2013-02-09 14:29:00,
2013-02-09 09:30:00,23.0,22.3,30.45,NE,45,6.0,9.0,97,0.00,,OVC017,0.00,VWS V14.00,2013-02-09 14:30:00,
2013-02-09 09:31:00,23.0,22.3,30.45,NE,45,5.0,9.0,97,0.00,,OVC017,0.00,VWS V14.00,2013-02-09 14:31:00,
2013-02-09 09:33:00,23.0,22.3,30.45,NE,45,7.0,7.0,97,0.00,,OVC017,0.00,VWS V14.00,2013-02-09 14:33:00,
2013-02-09 09:35:00,23.0,22.3,30.45,NE,45,7.0,9.0,97,0.00,,OVC017,0.00,VWS V14.00,2013-02-09 14:35:00,
2013-02-09 09:36:00,23.0,22.3,30.45,NNE,22,9.0,9.0,97,0.00,,OVC017,0.00,VWS V14.00,2013-02-09 14:36:00,
2013-02-09 09:40:00,23.0,22.3,30.45,NE,45,8.0,14.0,97,0.00,,OVC017,0.00,VWS V14.00,2013-02-09 14:40:00,
2013-02-09 09:42:00,23.0,22.3,30.45,NE,45,10.0,14.0,97,0.00,,OVC017,0.00,VWS V14.00,2013-02-09 14:42:00,
2013-02-09 09:43:00,23.0,22.3,30.45,NNE,22,6.0,14.0,97,0.00,,OVC017,0.00,VWS V14.00,2013-02-09 14:43:00,
2013-02-09 09:46:00,23.0,22.3,30.45,NE,45,9.0,13.0,97,0.00,,OVC017,0.00,VWS V14.00,2013-02-09 14:46:00,
2013-02-09 09:47:00,23.0,22.3,30.45,NE,45,8.0,13.0,97,0.00,,OVC017,0.00,VWS V14.00,2013-02-09 14:47:00,
2013-02-09 09:48:00,23.0,22.3,30.45,NE,45,6.0,13.0,97,0.00,,OVC017,0.00,VWS V14.00,2013-02-09 14:48:00,
2013-02-09 09:51:00,23.0,22.3,30.45,NNE,22,10.0,13.0,97,0.00,,OVC017,0.00,VWS V14.00,2013-02-09 14:51:00,
2013-02-09 09:53:00,23.0,22.3,30.45,NE,45,6.0,13.0,97,0.00,,OVC017,0.00,VWS V14.00,2013-02-09 14:53:00,
2013-02-09 09:58:00,23.0,22.0,30.46,NNE,22,10.0,10.0,96,0.00,,OVC017,0.00,VWS V14.00,2013-02-09 14:58:00,
2013-02-09 09:59:00,23.0,22.0,30.46,NE,45,8.0,11.0,96,0.00,,OVC017,0.00,VWS V14.00,2013-02-09 14:59:00,
2013-02-09 10:03:00,23.0,22.0,30.46,NNE,22,10.0,10.0,96,0.00,,OVC017,0.00,VWS V14.00,2013-02-09 15:03:00,
2013-02-09 10:04:00,23.0,21.8,30.46,NNE,22,8.0,10.0,95,0.00,,OVC017,0.00,VWS V14.00,2013-02-09 15:04:00,
2013-02-09 10:06:00,23.0,21.8,30.46,NNE,22,9.0,13.0,95,0.00,,OVC017,0.00,VWS V14.00,2013-02-09 15:06:00,
2013-02-09 10:08:00,23.0,21.8,30.46,North,360,10.0,11.0,95,0.00,,OVC017,0.00,VWS V14.00,2013-02-09 15:08:00,
2013-02-09 10:09:00,23.0,21.5,30.46,North,360,7.0,11.0,94,0.00,,OVC017,0.00,VWS V14.00,2013-02-09 15:09:00,
2013-02-09 10:11:00,23.0,21.5,30.46,NNE,22,9.0,11.0,94,0.00,,OVC017,0.00,VWS V14.00,2013-02-09 15:11:00,
2013-02-09 10:15:00,23.0,21.8,30.46,North,360,8.0,9.0,95,0.00,,OVC017,0.00,VWS V14.00,2013-02-09 15:15:00,
2013-02-09 10:16:00,23.0,21.5,30.46,North,360,6.0,9.0,94,0.00,,OVC017,0.00,VWS V14.00,2013-02-09 15:16:00,
2013-02-09 10:17:00,23.0,21.5,30.46,North,360,6.0,9.0,94,0.00,,OVC017,0.00,VWS V14.00,2013-02-09 15:17:00,
2013-02-09 10:20:00,23.0,21.8,30.46,NE,45,6.0,10.0,95,0.00,,OVC017,0.00,VWS V14.00,2013-02-09 15:20:00,
2013-02-09 10:21:00,23.0,21.8,30.46,NNE,22,10.0,10.0,95,0.00,,OVC017,0.00,VWS V14.00,2013-02-09 15:21:00,
2013-02-09 10:22:00,23.0,21.8,30.46,NE,45,8.0,10.0,95,0.00,,OVC017,0.00,VWS V14.00,2013-02-09 15:22:00,
2013-02-09 10:23:00,23.0,21.8,30.46,NE,45,7.0,9.0,95,0.00,,OVC017,0.00,VWS V14.00,2013-02-09 15:23:00,
2013-02-09 10:27:00,23.0,21.8,30.46,NE,45,5.0,10.0,95,0.00,,OVC017,0.00,VWS V14.00,2013-02-09 15:27:00,
2013-02-09 10:28:00,23.0,21.8,30.46,NE,45,5.0,6.0,95,0.00,,OVC017,0.00,VWS V14.00,2013-02-09 15:28:00,
2013-02-09 10:29:00,23.0,21.8,30.46,NNE,22,8.0,9.0,95,0.00,,OVC017,0.00,VWS V14.00,2013-02-09 15:29:00,
2013-02-09 10:33:00,23.0,21.8,30.46,NE,45,5.0,9.0,95,0.00,,OVC017,0.00,VWS V14.00,2013-02-09 15:33:00,
2013-02-09 10:34:00,23.0,21.8,30.46,NE,45,5.0,6.0,95,0.00,,OVC017,0.00,VWS V14.00,2013-02-09 15:34:00,
2013-02-09 10:35:00,23.0,21.8,30.46,North,360,8.0,8.0,95,0.00,,OVC017,0.00,VWS V14.00,2013-02-09 15:35:00,
2013-02-09 10:36:00,23.0,21.8,30.46,North,360,9.0,10.0,95,0.00,,OVC017,0.00,VWS V14.00,2013-02-09 15:36:00,
2013-02-09 10:38:00,23.0,21.5,30.46,North,360,8.0,8.0,94,0.00,,OVC017,0.00,VWS V14.00,2013-02-09 15:38:00,
2013-02-09 10:40:00,23.0,21.3,30.46,North,360,8.0,9.0,93,0.00,,OVC017,0.00,VWS V14.00,2013-02-09 15:40:00,
2013-02-09 10:41:00,23.0,21.3,30.46,NNW,337,5.0,9.0,93,0.00,,OVC017,0.00,VWS V14.00,2013-02-09 15:41:00,
2013-02-09 10:42:00,23.0,21.3,30.46,NNW,337,5.0,9.0,93,0.00,,OVC017,0.00,VWS V14.00,2013-02-09 15:42:00,
2013-02-09 10:46:00,23.0,21.0,30.47,North,360,6.0,6.0,92,0.00,,OVC017,0.00,VWS V14.00,2013-02-09 15:46:00,
2013-02-09 10:47:00,23.0,21.0,30.47,North,360,5.0,6.0,92,0.00,,OVC017,0.00,VWS V14.00,2013-02-09 15:47:00,
2013-02-09 10:48:00,23.0,21.0,30.47,North,360,4.0,6.0,92,0.00,,OVC017,0.00,VWS V14.00,2013-02-09 15:48:00,
2013-02-09 10:51:00,23.0,21.5,30.47,North,360,6.0,7.0,94,0.00,,OVC017,0.00,VWS V14.00,2013-02-09 15:51:00,
2013-02-09 10:52:00,23.0,21.5,30.47,North,360,7.0,7.0,94,0.00,,OVC017,0.00,VWS V14.00,2013-02-09 15:52:00,
2013-02-09 10:54:00,23.0,21.5,30.47,North,360,5.0,5.0,94,0.00,,OVC017,0.00,VWS V14.00,2013-02-09 15:54:00,
2013-02-09 10:57:00,23.0,21.8,30.47,NNE,22,7.0,8.0,95,0.00,,OVC017,0.00,VWS V14.00,2013-02-09 15:57:00,
2013-02-09 10:58:00,23.0,21.8,30.47,North,360,8.0,11.0,95,0.00,,OVC017,0.00,VWS V14.00,2013-02-09 15:58:00,
2013-02-09 10:59:00,23.0,21.8,30.47,NNE,22,6.0,9.0,95,0.00,,OVC017,0.00,VWS V14.00,2013-02-09 15:59:00,
2013-02-09 11:02:00,23.0,21.8,30.47,North,360,7.0,9.0,95,0.00,,OVC015,0.00,VWS V14.00,2013-02-09 16:02:00,
2013-02-09 11:03:00,23.0,21.8,30.47,NNE,22,5.0,5.0,95,0.00,,OVC015,0.00,VWS V14.00,2013-02-09 16:03:00,
2013-02-09 11:04:00,23.0,21.8,30.47,NNE,22,6.0,8.0,95,0.00,,OVC015,0.00,VWS V14.00,2013-02-09 16:04:00,
2013-02-09 11:08:00,23.0,21.8,30.47,North,360,8.0,9.0,95,0.00,,OVC015,0.00,VWS V14.00,2013-02-09 16:08:00,
2013-02-09 11:09:00,23.0,21.8,30.47,North,360,6.0,8.0,95,0.00,,OVC015,0.00,VWS V14.00,2013-02-09 16:09:00,
2013-02-09 11:10:00,23.0,21.8,30.47,North,360,8.0,8.0,95,0.00,,OVC015,0.00,VWS V14.00,2013-02-09 16:10:00,
2013-02-09 11:13:00,23.0,21.8,30.47,NE,45,5.0,7.0,95,0.00,,OVC015,0.00,VWS V14.00,2013-02-09 16:13:00,
2013-02-09 11:14:00,24.0,22.5,30.46,NNE,22,6.0,7.0,94,0.00,,OVC015,0.00,VWS V14.00,2013-02-09 16:14:00,
2013-02-09 11:15:00,24.0,22.5,30.46,NNE,22,6.0,7.0,94,0.00,,OVC015,0.00,VWS V14.00,2013-02-09 16:15:00,
2013-02-09 11:16:00,23.0,21.8,30.46,NNE,22,5.0,7.0,95,0.00,,OVC015,0.00,VWS V14.00,2013-02-09 16:16:00,
2013-02-09 11:18:00,23.0,21.8,30.46,North,360,6.0,6.0,95,0.00,,OVC015,0.00,VWS V14.00,2013-02-09 16:18:00,
2013-02-09 11:21:00,24.0,22.3,30.46,North,360,6.0,6.0,93,0.00,,OVC015,0.00,VWS V14.00,2013-02-09 16:21:00,
2013-02-09 11:22:00,24.0,22.3,30.46,NNE,22,5.0,6.0,93,0.00,,OVC015,0.00,VWS V14.00,2013-02-09 16:22:00,
2013-02-09 11:23:00,24.0,22.3,30.46,North,360,6.0,7.0,93,0.00,,OVC015,0.00,VWS V14.00,2013-02-09 16:23:00,
2013-02-09 11:25:00,24.0,22.3,30.47,NNE,22,7.0,8.0,93,0.00,,OVC015,0.00,VWS V14.00,2013-02-09 16:25:00,
2013-02-09 11:26:00,23.0,21.8,30.47,NNE,22,7.0,8.0,95,0.00,,OVC015,0.00,VWS V14.00,2013-02-09 16:26:00,
2013-02-09 11:28:00,23.0,21.8,30.47,NNE,22,5.0,8.0,95,0.00,,OVC015,0.00,VWS V14.00,2013-02-09 16:28:00,
2013-02-09 11:31:00,23.0,21.5,30.47,North,360,3.0,5.0,94,0.00,,OVC015,0.00,VWS V14.00,2013-02-09 16:31:00,
2013-02-09 11:32:00,23.0,21.5,30.47,North,360,4.0,5.0,94,0.00,,OVC015,0.00,VWS V14.00,2013-02-09 16:32:00,
2013-02-09 11:33:00,23.0,22.3,30.47,NNW,337,5.0,6.0,94,0.00,,OVC015,0.00,VWS V14.00,2013-02-09 16:33:00,
2013-02-09 11:34:00,24.0,22.3,30.47,NNW,337,2.0,6.0,93,0.00,,OVC015,0.00,VWS V14.00,2013-02-09 16:34:00,
2013-02-09 11:36:00,24.0,22.3,30.47,North,360,5.0,6.0,93,0.00,,OVC015,0.00,VWS V14.00,2013-02-09 16:36:00,
2013-02-09 11:38:00,24.0,22.3,30.47,NNE,22,8.0,8.0,93,0.00,,OVC015,0.00,VWS V14.00,2013-02-09 16:38:00,
2013-02-09 11:40:00,24.0,22.5,30.47,NE,45,5.0,8.0,94,0.00,,OVC015,0.00,VWS V14.00,2013-02-09 16:40:00,
2013-02-09 11:41:00,24.0,22.5,30.47,NE,45,4.0,8.0,94,0.00,,OVC015,0.00,VWS V14.00,2013-02-09 16:41:00,
2013-02-09 11:42:00,24.0,22.5,30.47,North,360,6.0,8.0,94,0.00,,OVC015,0.00,VWS V14.00,2013-02-09 16:42:00,
2013-02-09 11:44:00,24.0,22.5,30.47,NNE,22,5.0,7.0,94,0.00,,OVC015,0.00,VWS V14.00,2013-02-09 16:44:00,
2013-02-09 11:45:00,24.0,22.5,30.47,NE,45,6.0,8.0,94,0.00,,OVC015,0.00,VWS V14.00,2013-02-09 16:45:00,
2013-02-09 11:47:00,23.0,21.8,30.47,NNE,22,5.0,8.0,95,0.00,,OVC015,0.00,VWS V14.00,2013-02-09 16:47:00,
2013-02-09 11:49:00,24.0,22.5,30.47,North,360,5.0,6.0,94,0.00,,OVC015,0.00,VWS V14.00,2013-02-09 16:49:00,
2013-02-09 11:51:00,24.0,22.3,30.47,North,360,4.0,6.0,93,0.00,,OVC015,0.00,VWS V14.00,2013-02-09 16:51:00,
2013-02-09 11:53:00,24.0,22.3,30.47,NNW,337,2.0,4.0,93,0.00,,OVC015,0.00,VWS V14.00,2013-02-09 16:53:00,
2013-02-09 11:54:00,24.0,22.3,30.47,North,360,5.0,7.0,93,0.00,,OVC015,0.00,VWS V14.00,2013-02-09 16:54:00,
2013-02-09 11:55:00,24.0,22.3,30.47,North,360,3.0,7.0,93,0.00,,OVC015,0.00,VWS V14.00,2013-02-09 16:55:00,
2013-02-09 11:57:00,24.0,22.0,30.47,North,360,1.0,7.0,92,0.00,,OVC015,0.00,VWS V14.00,2013-02-09 16:57:00,
2013-02-09 11:59:00,24.0,22.0,30.47,NW,315,5.0,6.0,92,0.00,,OVC015,0.00,VWS V14.00,2013-02-09 16:59:00,
2013-02-09 12:00:00,24.0,22.0,30.47,NW,315,6.0,6.0,92,0.00,,OVC015,0.00,VWS V14.00,2013-02-09 17:00:00,
2013-02-09 12:03:00,24.0,21.8,30.47,NW,315,6.0,6.0,91,0.00,,OVC015,0.00,VWS V14.00,2013-02-09 17:03:00,
2013-02-09 12:05:00,24.0,21.8,30.47,NNW,337,4.0,7.0,91,0.00,,OVC015,0.00,VWS V14.00,2013-02-09 17:05:00,
2013-02-09 12:06:00,24.0,21.8,30.47,NNW,337,5.0,7.0,91,0.00,,OVC015,0.00,VWS V14.00,2013-02-09 17:06:00,
2013-02-09 12:08:00,24.0,22.0,30.47,NNW,337,5.0,6.0,92,0.00,,OVC015,0.00,VWS V14.00,2013-02-09 17:08:00,
2013-02-09 12:10:00,24.0,21.8,30.47,North,360,7.0,7.0,91,0.00,,OVC015,0.00,VWS V14.00,2013-02-09 17:10:00,
2013-02-09 12:11:00,24.0,21.8,30.47,North,360,5.0,8.0,91,0.00,,OVC015,0.00,VWS V14.00,2013-02-09 17:11:00,
2013-02-09 12:14:00,24.0,21.8,30.46,NE,45,3.0,5.0,91,0.00,,OVC015,0.00,VWS V14.00,2013-02-09 17:14:00,
2013-02-09 12:16:00,24.0,21.8,30.46,North,360,5.0,6.0,91,0.00,,OVC015,0.00,VWS V14.00,2013-02-09 17:16:00,
2013-02-09 12:17:00,24.0,21.8,30.46,North,360,6.0,6.0,91,0.00,,OVC015,0.00,VWS V14.00,2013-02-09 17:17:00,
2013-02-09 12:20:00,24.0,21.8,30.46,NNW,337,6.0,6.0,91,0.00,,OVC015,0.00,VWS V14.00,2013-02-09 17:20:00,
2013-02-09 12:22:00,24.0,21.8,30.46,North,360,6.0,7.0,91,0.00,,OVC015,0.00,VWS V14.00,2013-02-09 17:22:00,
2013-02-09 12:24:00,24.0,21.2,30.46,NNW,337,5.0,5.0,89,0.00,,OVC015,0.00,VWS V14.00,2013-02-09 17:24:00,
2013-02-09 12:25:00,24.0,21.2,30.46,NW,315,7.0,7.0,89,0.00,,OVC015,0.00,VWS V14.00,2013-02-09 17:25:00,
2013-02-09 12:27:00,24.0,21.5,30.46,NNW,337,5.0,7.0,90,0.00,,OVC015,0.00,VWS V14.00,2013-02-09 17:27:00,
2013-02-09 12:28:00,24.0,21.5,30.46,NW,315,6.0,8.0,90,0.00,,OVC015,0.00,VWS V14.00,2013-02-09 17:28:00,
2013-02-09 12:30:00,24.0,21.5,30.46,NW,315,8.0,9.0,90,0.00,,OVC015,0.00,VWS V14.00,2013-02-09 17:30:00,
2013-02-09 12:32:00,24.0,21.5,30.46,NW,315,6.0,9.0,90,0.00,,OVC015,0.00,VWS V14.00,2013-02-09 17:32:00,
2013-02-09 12:33:00,24.0,21.5,30.46,NW,315,6.0,9.0,90,0.00,,OVC015,0.00,VWS V14.00,2013-02-09 17:33:00,
2013-02-09 12:34:00,24.0,21.5,30.46,NW,315,6.0,8.0,90,0.00,,OVC015,0.00,VWS V14.00,2013-02-09 17:34:00,
2013-02-09 12:35:00,24.0,21.2,30.46,NW,315,6.0,8.0,89,0.00,,OVC015,0.00,VWS V14.00,2013-02-09 17:35:00,
2013-02-09 12:37:00,24.0,21.2,30.46,NW,315,5.0,8.0,89,0.00,,OVC015,0.00,VWS V14.00,2013-02-09 17:37:00,
2013-02-09 12:38:00,24.0,21.2,30.46,NW,315,6.0,6.0,89,0.00,,OVC015,0.00,VWS V14.00,2013-02-09 17:38:00,
2013-02-09 12:40:00,24.0,21.8,30.46,NW,315,5.0,7.0,91,0.00,,OVC015,0.00,VWS V14.00,2013-02-09 17:40:00,
2013-02-09 12:43:00,24.0,21.8,30.46,NW,315,5.0,6.0,91,0.00,,OVC015,0.00,VWS V14.00,2013-02-09 17:43:00,
2013-02-09 12:44:00,24.0,21.5,30.46,NW,315,5.0,6.0,90,0.00,,OVC015,0.00,VWS V14.00,2013-02-09 17:44:00,
2013-02-09 12:45:00,24.0,22.5,30.46,West,270,6.0,6.0,90,0.00,,OVC015,0.00,VWS V14.00,2013-02-09 17:45:00,
2013-02-09 12:49:00,25.0,22.0,30.46,NW,315,8.0,8.0,88,0.00,,OVC015,0.00,VWS V14.00,2013-02-09 17:49:00,
2013-02-09 12:50:00,25.0,22.0,30.46,NW,315,4.0,8.0,88,0.00,,OVC015,0.00,VWS V14.00,2013-02-09 17:50:00,
2013-02-09 12:51:00,25.0,21.4,30.46,West,270,5.0,8.0,87,0.00,,OVC015,0.00,VWS V14.00,2013-02-09 17:51:00,
2013-02-09 12:54:00,25.0,22.0,30.45,NW,315,8.0,9.0,88,0.00,,OVC015,0.00,VWS V14.00,2013-02-09 17:54:00,
2013-02-09 12:55:00,25.0,22.0,30.45,North,360,8.0,9.0,88,0.00,,OVC015,0.00,VWS V14.00,2013-02-09 17:55:00,
2013-02-09 12:56:00,24.0,21.2,30.45,North,360,7.0,9.0,89,0.00,,OVC015,0.00,VWS V14.00,2013-02-09 17:56:00,
2013-02-09 13:00:00,24.0,21.2,30.45,North,360,5.0,8.0,89,0.00,,OVC015,0.00,VWS V14.00,2013-02-09 18:00:00,
2013-02-09 13:01:00,24.0,21.2,30.45,North,360,5.0,8.0,89,0.00,,BKN017,0.00,VWS V14.00,2013-02-09 18:01:00,
2013-02-09 13:06:00,24.0,21.0,30.45,NW,315,7.0,8.0,88,0.00,,BKN017,0.00,VWS V14.00,2013-02-09 18:06:00,
2013-02-09 13:07:00,24.0,21.0,30.45,NW,315,7.0,8.0,88,0.00,,BKN017,0.00,VWS V14.00,2013-02-09 18:07:00,
2013-02-09 13:09:00,24.0,21.0,30.45,NW,315,6.0,7.0,88,0.00,,BKN017,0.00,VWS V14.00,2013-02-09 18:09:00,
2013-02-09 13:11:00,24.0,21.0,30.45,NNW,337,4.0,7.0,88,0.00,,BKN017,0.00,VWS V14.00,2013-02-09 18:11:00,
2013-02-09 13:12:00,24.0,21.0,30.45,NW,315,5.0,7.0,88,0.00,,BKN017,0.00,VWS V14.00,2013-02-09 18:12:00,
2013-02-09 13:13:00,24.0,21.0,30.45,NW,315,5.0,7.0,88,0.00,,BKN017,0.00,VWS V14.00,2013-02-09 18:13:00,
2013-02-09 13:15:00,25.0,22.2,30.45,NW,315,5.0,6.0,89,0.00,,BKN017,0.00,VWS V14.00,2013-02-09 18:15:00,
2013-02-09 13:18:00,24.0,21.2,30.45,NW,315,5.0,8.0,89,0.00,,BKN017,0.00,VWS V14.00,2013-02-09 18:18:00,
2013-02-09 13:19:00,25.0,22.0,30.45,NW,315,6.0,8.0,88,0.00,,BKN017,0.00,VWS V14.00,2013-02-09 18:19:00,
2013-02-09 13:22:00,24.0,21.0,30.45,NW,315,9.0,9.0,88,0.00,,CLR,0.00,VWS V14.00,2013-02-09 18:22:00,
2013-02-09 13:23:00,25.0,22.0,30.45,NW,315,6.0,8.0,88,0.00,,CLR,0.00,VWS V14.00,2013-02-09 18:23:00,
2013-02-09 13:24:00,25.0,22.0,30.45,NW,315,8.0,8.0,88,0.00,,CLR,0.00,VWS V14.00,2013-02-09 18:24:00,
2013-02-09 13:26:00,24.0,21.0,30.45,NW,315,5.0,9.0,88,0.00,,CLR,0.00,VWS V14.00,2013-02-09 18:26:00,
2013-02-09 13:29:00,25.0,22.0,30.45,NW,315,6.0,8.0,88,0.00,,CLR,0.00,VWS V14.00,2013-02-09 18:29:00,
2013-02-09 13:30:00,25.0,22.0,30.45,North,360,9.0,9.0,88,0.00,,CLR,0.00,VWS V14.00,2013-02-09 18:30:00,
2013-02-09 13:31:00,24.0,21.0,30.45,NNW,337,6.0,9.0,88,0.00,,CLR,0.00,VWS V14.00,2013-02-09 18:31:00,
2013-02-09 13:35:00,24.0,21.0,30.45,NW,315,6.0,8.0,88,0.00,,CLR,0.00,VWS V14.00,2013-02-09 18:35:00,
2013-02-09 13:36:00,24.0,21.0,30.45,NW,315,6.0,8.0,88,0.00,,CLR,0.00,VWS V14.00,2013-02-09 18:36:00,
2013-02-09 13:41:00,24.0,21.0,30.45,NW,315,7.0,8.0,88,0.00,,CLR,0.00,VWS V14.00,2013-02-09 18:41:00,
2013-02-09 13:42:00,24.0,21.0,30.45,NW,315,5.0,8.0,88,0.00,,CLR,0.00,VWS V14.00,2013-02-09 18:42:00,
2013-02-09 13:43:00,24.0,21.0,30.45,NW,315,5.0,5.0,88,0.00,,CLR,0.00,VWS V14.00,2013-02-09 18:43:00,
2013-02-09 13:46:00,24.0,21.0,30.46,NW,315,7.0,8.0,88,0.00,,CLR,0.00,VWS V14.00,2013-02-09 18:46:00,
2013-02-09 13:47:00,24.0,21.0,30.46,NW,315,9.0,9.0,88,0.00,,CLR,0.00,VWS V14.00,2013-02-09 18:47:00,
2013-02-09 13:48:00,24.0,21.2,30.46,NW,315,6.0,6.0,89,0.00,,CLR,0.00,VWS V14.00,2013-02-09 18:48:00,
2013-02-09 13:52:00,24.0,21.2,30.46,NNW,337,6.0,8.0,89,0.00,,CLR,0.00,VWS V14.00,2013-02-09 18:52:00,
2013-02-09 13:53:00,24.0,21.2,30.46,North,360,6.0,8.0,89,0.00,,CLR,0.00,VWS V14.00,2013-02-09 18:53:00,
2013-02-09 13:54:00,25.0,22.8,30.45,North,360,8.0,8.0,91,0.00,,CLR,0.00,VWS V14.00,2013-02-09 18:54:00,
2013-02-09 13:55:00,25.0,22.8,30.45,North,360,9.0,9.0,91,0.00,,CLR,0.00,VWS V14.00,2013-02-09 18:55:00,
2013-02-09 13:57:00,24.0,21.2,30.45,NNW,337,6.0,10.0,89,0.00,,CLR,0.00,VWS V14.00,2013-02-09 18:57:00,
2013-02-09 13:59:00,24.0,21.2,30.45,North,360,7.0,8.0,89,0.00,,CLR,0.00,VWS V14.00,2013-02-09 18:59:00,
2013-02-09 14:00:00,24.0,21.5,30.45,NW,315,6.0,8.0,90,0.00,,CLR,0.00,VWS V14.00,2013-02-09 19:00:00,
2013-02-09 14:01:00,24.0,21.2,30.45,North,360,5.0,8.0,89,0.00,,CLR,0.00,VWS V14.00,2013-02-09 19:01:00,
2013-02-09 14:02:00,24.0,21.0,30.45,North,360,5.0,8.0,88,0.00,,CLR,0.00,VWS V14.00,2013-02-09 19:02:00,
2013-02-09 14:04:00,25.0,22.2,30.45,North,360,6.0,8.0,89,0.00,,CLR,0.00,VWS V14.00,2013-02-09 19:04:00,
2013-02-09 14:07:00,25.0,22.2,30.45,North,360,6.0,8.0,89,0.00,,CLR,0.00,VWS V14.00,2013-02-09 19:07:00,
2013-02-09 14:08:00,24.0,21.2,30.45,NNW,337,6.0,8.0,89,0.00,,CLR,0.00,VWS V14.00,2013-02-09 19:08:00,
2013-02-09 14:10:00,25.0,22.5,30.45,North,360,8.0,8.0,90,0.00,,CLR,0.00,VWS V14.00,2013-02-09 19:10:00,
2013-02-09 14:12:00,25.0,22.2,30.45,North,360,8.0,8.0,89,0.00,,CLR,0.00,VWS V14.00,2013-02-09 19:12:00,
2013-02-09 14:13:00,25.0,22.2,30.45,North,360,6.0,6.0,89,0.00,,CLR,0.00,VWS V14.00,2013-02-09 19:13:00,
2013-02-09 14:15:00,25.0,22.2,30.44,North,360,6.0,6.0,89,0.00,,CLR,0.00,VWS V14.00,2013-02-09 19:15:00,
2013-02-09 14:17:00,25.0,22.2,30.44,North,360,5.0,6.0,89,0.00,,CLR,0.00,VWS V14.00,2013-02-09 19:17:00,
2013-02-09 14:19:00,25.0,22.2,30.44,North,360,7.0,8.0,89,0.00,,CLR,0.00,VWS V14.00,2013-02-09 19:19:00,
2013-02-09 14:20:00,24.0,21.2,30.44,North,360,6.0,8.0,89,0.00,,SCT017,0.00,VWS V14.00,2013-02-09 19:20:00,
2013-02-09 14:21:00,24.0,21.2,30.44,North,360,6.0,8.0,89,0.00,,SCT017,0.00,VWS V14.00,2013-02-09 19:21:00,
2013-02-09 14:23:00,25.0,22.2,30.44,North,360,6.0,6.0,89,0.00,,SCT017,0.00,VWS V14.00,2013-02-09 19:23:00,
2013-02-09 14:24:00,25.0,22.2,30.44,North,360,5.0,6.0,89,0.00,,SCT017,0.00,VWS V14.00,2013-02-09 19:24:00,
2013-02-09 14:26:00,25.0,22.2,30.44,North,360,6.0,7.0,89,0.00,,SCT017,0.00,VWS V14.00,2013-02-09 19:26:00,
2013-02-09 14:27:00,25.0,22.2,30.44,North,360,6.0,7.0,89,0.00,,SCT017,0.00,VWS V14.00,2013-02-09 19:27:00,
2013-02-09 14:29:00,25.0,22.2,30.44,North,360,6.0,8.0,89,0.00,,SCT017,0.00,VWS V14.00,2013-02-09 19:29:00,
2013-02-09 14:31:00,25.0,22.2,30.44,North,360,6.0,8.0,89,0.00,,SCT017,0.00,VWS V14.00,2013-02-09 19:31:00,
2013-02-09 14:32:00,25.0,22.2,30.44,NNE,22,6.0,8.0,89,0.00,,SCT017,0.00,VWS V14.00,2013-02-09 19:32:00,
2013-02-09 14:33:00,25.0,22.5,30.44,NE,45,6.0,8.0,90,0.00,,SCT017,0.00,VWS V14.00,2013-02-09 19:33:00,
2013-02-09 14:34:00,25.0,22.5,30.44,NE,45,3.0,6.0,90,0.00,,SCT017,0.00,VWS V14.00,2013-02-09 19:34:00,
2013-02-09 14:37:00,25.0,22.8,30.44,North,360,5.0,7.0,91,0.00,,SCT017,0.00,VWS V14.00,2013-02-09 19:37:00,
2013-02-09 14:38:00,25.0,22.8,30.44,North,360,4.0,6.0,91,0.00,,SCT017,0.00,VWS V14.00,2013-02-09 19:38:00,
2013-02-09 14:39:00,25.0,22.8,30.44,NNE,22,6.0,6.0,91,0.00,,SCT017,0.00,VWS V14.00,2013-02-09 19:39:00,
2013-02-09 14:42:00,25.0,22.5,30.44,North,360,5.0,6.0,90,0.00,,SCT017,0.00,VWS V14.00,2013-02-09 19:42:00,
2013-02-09 14:44:00,25.0,22.2,30.43,NNW,337,5.0,6.0,89,0.00,,SCT017,0.00,VWS V14.00,2013-02-09 19:44:00,
2013-02-09 14:47:00,25.0,22.2,30.43,NNW,337,5.0,7.0,89,0.00,,SCT017,0.00,VWS V14.00,2013-02-09 19:47:00,
2013-02-09 14:50:00,25.0,22.0,30.43,North,360,5.0,6.0,88,0.00,,SCT017,0.00,VWS V14.00,2013-02-09 19:50:00,
2013-02-09 14:51:00,25.0,22.2,30.43,NNW,337,5.0,6.0,89,0.00,,SCT017,0.00,VWS V14.00,2013-02-09 19:51:00,
2013-02-09 14:53:00,25.0,22.2,30.43,North,360,5.0,6.0,89,0.00,,SCT017,0.00,VWS V14.00,2013-02-09 19:53:00,
2013-02-09 14:55:00,25.0,22.2,30.43,North,360,5.0,6.0,89,0.00,,SCT017,0.00,VWS V14.00,2013-02-09 19:55:00,
2013-02-09 14:56:00,25.0,22.2,30.43,North,360,6.0,8.0,89,0.00,,SCT017,0.00,VWS V14.00,2013-02-09 19:56:00,
2013-02-09 14:58:00,25.0,22.2,30.43,North,360,6.0,6.0,89,0.00,,SCT017,0.00,VWS V14.00,2013-02-09 19:58:00,
2013-02-09 15:00:00,25.0,22.2,30.43,North,360,5.0,6.0,89,0.00,,SCT017,0.00,VWS V14.00,2013-02-09 20:00:00,
2013-02-09 15:01:00,25.0,22.2,30.43,North,360,6.0,6.0,89,0.00,,SCT017,0.00,VWS V14.00,2013-02-09 20:01:00,
2013-02-09 15:02:00,25.0,22.5,30.43,North,360,6.0,6.0,90,0.00,,CLR,0.00,VWS V14.00,2013-02-09 20:02:00,
2013-02-09 15:04:00,25.0,22.2,30.44,North,360,5.0,8.0,89,0.00,,CLR,0.00,VWS V14.00,2013-02-09 20:04:00,
2013-02-09 15:05:00,25.0,22.2,30.44,North,360,6.0,8.0,89,0.00,,CLR,0.00,VWS V14.00,2013-02-09 20:05:00,
2013-02-09 15:06:00,25.0,22.2,30.44,North,360,6.0,8.0,89,0.00,,CLR,0.00,VWS V14.00,2013-02-09 20:06:00,
2013-02-09 15:09:00,25.0,22.2,30.44,North,360,4.0,6.0,89,0.00,,CLR,0.00,VWS V14.00,2013-02-09 20:09:00,
2013-02-09 15:10:00,25.0,22.2,30.44,North,360,5.0,6.0,89,0.00,,CLR,0.00,VWS V14.00,2013-02-09 20:10:00,
2013-02-09 15:11:00,25.0,22.2,30.44,North,360,5.0,6.0,89,0.00,,CLR,0.00,VWS V14.00,2013-02-09 20:11:00,
2013-02-09 15:15:00,25.0,22.2,30.44,North,360,5.0,7.0,89,0.00,,CLR,0.00,VWS V14.00,2013-02-09 20:15:00,
2013-02-09 15:16:00,25.0,22.2,30.44,North,360,5.0,7.0,89,0.00,,CLR,0.00,VWS V14.00,2013-02-09 20:16:00,
2013-02-09 15:19:00,25.0,22.2,30.44,North,360,5.0,6.0,89,0.00,,CLR,0.00,VWS V14.00,2013-02-09 20:19:00,
2013-02-09 15:21:00,25.0,22.0,30.44,North,360,5.0,6.0,88,0.00,,CLR,0.00,VWS V14.00,2013-02-09 20:21:00,
2013-02-09 15:23:00,25.0,22.0,30.44,North,360,5.0,6.0,88,0.00,,CLR,0.00,VWS V14.00,2013-02-09 20:23:00,
2013-02-09 15:24:00,25.0,22.0,30.44,North,360,5.0,6.0,88,0.00,,CLR,0.00,VWS V14.00,2013-02-09 20:24:00,
2013-02-09 15:26:00,25.0,22.0,30.44,North,360,5.0,7.0,88,0.00,,CLR,0.00,VWS V14.00,2013-02-09 20:26:00,
2013-02-09 15:27:00,25.0,22.0,30.44,North,360,3.0,7.0,88,0.00,,CLR,0.00,VWS V14.00,2013-02-09 20:27:00,
2013-02-09 15:28:00,25.0,22.0,30.44,North,360,4.0,5.0,88,0.00,,CLR,0.00,VWS V14.00,2013-02-09 20:28:00,
2013-02-09 15:29:00,25.0,22.0,30.44,North,360,5.0,6.0,88,0.00,,CLR,0.00,VWS V14.00,2013-02-09 20:29:00,
2013-02-09 15:32:00,25.0,22.0,30.44,NNW,337,6.0,6.0,88,0.00,,CLR,0.00,VWS V14.00,2013-02-09 20:32:00,
2013-02-09 15:33:00,25.0,22.0,30.44,NNW,337,6.0,8.0,88,0.00,,CLR,0.00,VWS V14.00,2013-02-09 20:33:00,
2013-02-09 15:37:00,25.0,22.0,30.44,North,360,7.0,8.0,88,0.00,,CLR,0.00,VWS V14.00,2013-02-09 20:37:00,
2013-02-09 15:38:00,25.0,22.2,30.44,North,360,5.0,6.0,89,0.00,,CLR,0.00,VWS V14.00,2013-02-09 20:38:00,
2013-02-09 15:39:00,25.0,22.2,30.44,North,360,3.0,6.0,89,0.00,,CLR,0.00,VWS V14.00,2013-02-09 20:39:00,
2013-02-09 15:40:00,25.0,22.2,30.44,North,360,5.0,6.0,89,0.00,,CLR,0.00,VWS V14.00,2013-02-09 20:40:00,
2013-02-09 15:42:00,25.0,22.2,30.44,North,360,6.0,6.0,89,0.00,,CLR,0.00,VWS V14.00,2013-02-09 20:42:00,
2013-02-09 15:44:00,25.0,22.2,30.44,NNW,337,6.0,6.0,89,0.00,,CLR,0.00,VWS V14.00,2013-02-09 20:44:00,
2013-02-09 15:45:00,25.0,22.2,30.44,NNW,337,6.0,7.0,89,0.00,,CLR,0.00,VWS V14.00,2013-02-09 20:45:00,
2013-02-09 15:47:00,25.0,22.0,30.44,NNW,337,5.0,7.0,88,0.00,,CLR,0.00,VWS V14.00,2013-02-09 20:47:00,
2013-02-09 15:50:00,25.0,22.2,30.44,North,360,6.0,6.0,88,0.00,,CLR,0.00,VWS V14.00,2013-02-09 20:50:00,
2013-02-09 15:51:00,25.0,22.2,30.44,NNW,337,7.0,7.0,89,0.00,,CLR,0.00,VWS V14.00,2013-02-09 20:51:00,
2013-02-09 15:52:00,25.0,22.2,30.44,North,360,6.0,7.0,89,0.00,,CLR,0.00,VWS V14.00,2013-02-09 20:52:00,
2013-02-09 15:53:00,25.0,22.2,30.44,North,360,5.0,6.0,89,0.00,,CLR,0.00,VWS V14.00,2013-02-09 20:53:00,
2013-02-09 15:56:00,25.0,22.5,30.43,North,360,6.0,7.0,90,0.00,,CLR,0.00,VWS V14.00,2013-02-09 20:56:00,
2013-02-09 15:57:00,25.0,22.5,30.43,North,360,5.0,7.0,90,0.00,,CLR,0.00,VWS V14.00,2013-02-09 20:57:00,
2013-02-09 15:58:00,25.0,22.8,30.43,North,360,6.0,6.0,90,0.00,,CLR,0.00,VWS V14.00,2013-02-09 20:58:00,
2013-02-09 15:59:00,25.0,22.8,30.43,North,360,6.0,7.0,91,0.00,,CLR,0.00,VWS V14.00,2013-02-09 20:59:00,
2013-02-09 16:02:00,25.0,23.3,30.43,North,360,6.0,8.0,93,0.00,,CLR,0.00,VWS V14.00,2013-02-09 21:02:00,
2013-02-09 16:03:00,25.0,23.3,30.43,North,360,8.0,8.0,93,0.00,,CLR,0.00,VWS V14.00,2013-02-09 21:03:00,
2013-02-09 16:05:00,25.0,22.8,30.43,North,360,5.0,8.0,91,0.00,,CLR,0.00,VWS V14.00,2013-02-09 21:05:00,
2013-02-09 16:09:00,25.0,22.8,30.43,North,360,6.0,6.0,91,0.00,,CLR,0.00,VWS V14.00,2013-02-09 21:09:00,
2013-02-09 16:10:00,25.0,22.8,30.43,North,360,6.0,8.0,91,0.00,,CLR,0.00,VWS V14.00,2013-02-09 21:10:00,
2013-02-09 16:11:00,25.0,22.8,30.43,North,360,6.0,8.0,91,0.00,,CLR,0.00,VWS V14.00,2013-02-09 21:11:00,
2013-02-09 16:14:00,25.0,23.0,30.43,North,360,6.0,7.0,92,0.00,,CLR,0.00,VWS V14.00,2013-02-09 21:14:00,
2013-02-09 16:15:00,25.0,23.0,30.43,North,360,6.0,7.0,92,0.00,,CLR,0.00,VWS V14.00,2013-02-09 21:15:00,
2013-02-09 16:16:00,25.0,22.8,30.43,North,360,4.0,7.0,91,0.00,,CLR,0.00,VWS V14.00,2013-02-09 21:16:00,
2013-02-09 16:17:00,25.0,22.8,30.43,North,360,6.0,7.0,91,0.00,,CLR,0.00,VWS V14.00,2013-02-09 21:17:00,
2013-02-09 16:20:00,25.0,22.8,30.43,NNE,22,6.0,8.0,91,0.00,,CLR,0.00,VWS V14.00,2013-02-09 21:20:00,
2013-02-09 16:21:00,25.0,22.8,30.43,NE,45,5.0,8.0,91,0.00,,CLR,0.00,VWS V14.00,2013-02-09 21:21:00,
2013-02-09 16:22:00,25.0,22.8,30.43,NE,45,4.0,8.0,91,0.00,,CLR,0.00,VWS V14.00,2013-02-09 21:22:00,
2013-02-09 16:26:00,25.0,22.8,30.43,North,360,4.0,6.0,91,0.00,,CLR,0.00,VWS V14.00,2013-02-09 21:26:00,
2013-02-09 16:27:00,25.0,22.8,30.43,NNE,22,6.0,8.0,91,0.00,,CLR,0.00,VWS V14.00,2013-02-09 21:27:00,
2013-02-09 16:28:00,25.0,22.8,30.43,NNE,22,6.0,8.0,91,0.00,,CLR,0.00,VWS V14.00,2013-02-09 21:28:00,
2013-02-09 16:32:00,25.0,22.8,30.43,NNE,22,3.0,6.0,91,0.00,,CLR,0.00,VWS V14.00,2013-02-09 21:32:00,
2013-02-09 16:33:00,25.0,22.8,30.43,NE,45,5.0,6.0,91,0.00,,CLR,0.00,VWS V14.00,2013-02-09 21:33:00,
2013-02-09 16:37:00,25.0,22.8,30.42,NNE,22,5.0,6.0,91,0.00,,CLR,0.00,VWS V14.00,2013-02-09 21:37:00,
2013-02-09 16:38:00,25.0,22.5,30.42,NNE,22,4.0,6.0,90,0.00,,CLR,0.00,VWS V14.00,2013-02-09 21:38:00,
2013-02-09 16:41:00,25.0,22.8,30.42,North,360,6.0,8.0,91,0.00,,CLR,0.00,VWS V14.00,2013-02-09 21:41:00,
2013-02-09 16:43:00,24.0,21.8,30.42,NNE,22,5.0,8.0,91,0.00,,CLR,0.00,VWS V14.00,2013-02-09 21:43:00,
2013-02-09 16:44:00,24.0,21.8,30.42,NNE,22,6.0,7.0,91,0.00,,CLR,0.00,VWS V14.00,2013-02-09 21:44:00,
2013-02-09 16:47:00,25.0,22.8,30.42,North,360,5.0,7.0,91,0.00,,CLR,0.00,VWS V14.00,2013-02-09 21:47:00,
2013-02-09 16:48:00,25.0,22.8,30.42,North,360,6.0,7.0,91,0.00,,CLR,0.00,VWS V14.00,2013-02-09 21:48:00,
2013-02-09 16:50:00,25.0,22.8,30.42,NE,45,6.0,7.0,91,0.00,,CLR,0.00,VWS V14.00,2013-02-09 21:50:00,
2013-02-09 16:52:00,25.0,23.0,30.42,North,360,6.0,8.0,92,0.00,,CLR,0.00,VWS V14.00,2013-02-09 21:52:00,
2013-02-09 16:55:00,24.0,22.0,30.42,NNE,22,7.0,7.0,92,0.00,,CLR,0.00,VWS V14.00,2013-02-09 21:55:00,
2013-02-09 16:56:00,25.0,23.0,30.42,NNE,22,6.0,8.0,92,0.00,,CLR,0.00,VWS V14.00,2013-02-09 21:56:00,
2013-02-09 16:58:00,25.0,23.3,30.42,North,360,6.0,7.0,93,0.00,,CLR,0.00,VWS V14.00,2013-02-09 21:58:00,
2013-02-09 17:01:00,24.0,22.3,30.42,NNE,22,7.0,8.0,93,0.00,,CLR,0.00,VWS V14.00,2013-02-09 22:01:00,
2013-02-09 17:02:00,24.0,22.3,30.42,NNE,22,7.0,8.0,93,0.00,,CLR,0.00,VWS V14.00,2013-02-09 22:02:00,
2013-02-09 17:03:00,24.0,22.0,30.42,NNE,22,5.0,6.0,92,0.00,,CLR,0.00,VWS V14.00,2013-02-09 22:03:00,
2013-02-09 17:06:00,24.0,22.0,30.41,NE,45,6.0,8.0,92,0.00,,CLR,0.00,VWS V14.00,2013-02-09 22:06:00,
2013-02-09 17:07:00,24.0,22.3,30.41,NNE,22,6.0,8.0,93,0.00,,CLR,0.00,VWS V14.00,2013-02-09 22:07:00,
2013-02-09 17:08:00,24.0,22.3,30.41,NNE,22,5.0,7.0,93,0.00,,CLR,0.00,VWS V14.00,2013-02-09 22:08:00,
2013-02-09 17:09:00,24.0,22.3,30.41,NE,45,5.0,8.0,93,0.00,,CLR,0.00,VWS V14.00,2013-02-09 22:09:00,
2013-02-09 17:11:00,24.0,22.3,30.41,NE,45,5.0,8.0,93,0.00,,CLR,0.00,VWS V14.00,2013-02-09 22:11:00,
2013-02-09 17:13:00,24.0,22.3,30.41,NE,45,5.0,7.0,93,0.00,,CLR,0.00,VWS V14.00,2013-02-09 22:13:00,
2013-02-09 17:14:00,24.0,22.3,30.41,NE,45,6.0,7.0,93,0.00,,CLR,0.00,VWS V14.00,2013-02-09 22:14:00,
2013-02-09 17:15:00,24.0,22.3,30.41,NE,45,5.0,8.0,93,0.00,,CLR,0.00,VWS V14.00,2013-02-09 22:15:00,
2013-02-09 17:16:00,24.0,22.3,30.41,NE,45,5.0,8.0,93,0.00,,CLR,0.00,VWS V14.00,2013-02-09 22:16:00,
2013-02-09 17:18:00,24.0,22.3,30.41,NE,45,5.0,5.0,93,0.00,,CLR,0.00,VWS V14.00,2013-02-09 22:18:00,
2013-02-09 17:19:00,24.0,22.3,30.41,NNE,22,6.0,6.0,93,0.00,,CLR,0.00,VWS V14.00,2013-02-09 22:19:00,
2013-02-09 17:21:00,24.0,22.3,30.41,NE,45,6.0,6.0,93,0.00,,CLR,0.00,VWS V14.00,2013-02-09 22:21:00,
2013-02-09 17:22:00,24.0,22.3,30.41,NE,45,7.0,7.0,93,0.00,,CLR,0.00,VWS V14.00,2013-02-09 22:22:00,
2013-02-09 17:24:00,24.0,22.3,30.41,NE,45,6.0,7.0,93,0.00,,CLR,0.00,VWS V14.00,2013-02-09 22:24:00,
2013-02-09 17:25:00,24.0,22.3,30.41,NE,45,6.0,7.0,93,0.00,,CLR,0.00,VWS V14.00,2013-02-09 22:25:00,
2013-02-09 17:26:00,24.0,22.3,30.41,NNE,22,6.0,7.0,93,0.00,,CLR,0.00,VWS V14.00,2013-02-09 22:26:00,
2013-02-09 17:27:00,24.0,22.3,30.41,NE,45,5.0,8.0,93,0.00,,CLR,0.00,VWS V14.00,2013-02-09 22:27:00,
2013-02-09 17:30:00,24.0,22.3,30.41,NNE,22,6.0,7.0,93,0.00,,CLR,0.00,VWS V14.00,2013-02-09 22:30:00,
2013-02-09 17:31:00,24.0,22.3,30.41,NE,45,6.0,7.0,93,0.00,,CLR,0.00,VWS V14.00,2013-02-09 22:31:00,
2013-02-09 17:33:00,24.0,22.3,30.41,NNE,22,6.0,7.0,93,0.00,,CLR,0.00,VWS V14.00,2013-02-09 22:33:00,
2013-02-09 17:34:00,24.0,22.3,30.41,NNE,22,6.0,8.0,93,0.00,,CLR,0.00,VWS V14.00,2013-02-09 22:34:00,
2013-02-09 17:36:00,24.0,22.5,30.41,NNE,22,8.0,8.0,94,0.00,,CLR,0.00,VWS V14.00,2013-02-09 22:36:00,
2013-02-09 17:38:00,24.0,22.5,30.41,NE,45,4.0,5.0,94,0.00,,CLR,0.00,VWS V14.00,2013-02-09 22:38:00,
2013-02-09 17:39:00,24.0,22.5,30.41,NE,45,5.0,6.0,94,0.00,,CLR,0.00,VWS V14.00,2013-02-09 22:39:00,
2013-02-09 17:41:00,24.0,22.5,30.41,NE,45,5.0,8.0,94,0.00,,CLR,0.00,VWS V14.00,2013-02-09 22:41:00,
2013-02-09 17:43:00,24.0,22.5,30.41,NE,45,5.0,7.0,94,0.00,,CLR,0.00,VWS V14.00,2013-02-09 22:43:00,
2013-02-09 17:44:00,24.0,22.8,30.41,NE,45,6.0,8.0,95,0.00,,CLR,0.00,VWS V14.00,2013-02-09 22:44:00,
2013-02-09 17:46:00,24.0,22.8,30.41,NE,45,5.0,8.0,95,0.00,,CLR,0.00,VWS V14.00,2013-02-09 22:46:00,
2013-02-09 17:49:00,24.0,22.8,30.41,NE,45,5.0,7.0,95,0.00,,CLR,0.00,VWS V14.00,2013-02-09 22:49:00,
2013-02-09 17:50:00,24.0,22.8,30.41,NE,45,6.0,7.0,95,0.00,,CLR,0.00,VWS V14.00,2013-02-09 22:50:00,
2013-02-09 17:52:00,23.0,22.0,30.41,NE,45,6.0,8.0,96,0.00,,CLR,0.00,VWS V14.00,2013-02-09 22:52:00,
2013-02-09 17:55:00,23.0,22.0,30.40,NE,45,6.0,8.0,96,0.00,,CLR,0.00,VWS V14.00,2013-02-09 22:55:00,
2013-02-09 17:56:00,23.0,22.0,30.40,NE,45,4.0,8.0,96,0.00,,CLR,0.00,VWS V14.00,2013-02-09 22:56:00,
2013-02-09 17:58:00,23.0,22.0,30.40,North,360,5.0,8.0,96,0.00,,CLR,0.00,VWS V14.00,2013-02-09 22:58:00,
2013-02-09 18:01:00,23.0,22.3,30.40,NE,45,5.0,7.0,97,0.00,,CLR,0.00,VWS V14.00,2013-02-09 23:01:00,
2013-02-09 18:02:00,23.0,22.3,30.40,NE,45,5.0,7.0,97,0.00,,CLR,0.00,VWS V14.00,2013-02-09 23:02:00,
2013-02-09 18:03:00,23.0,22.3,30.40,ENE,67,5.0,6.0,97,0.00,,CLR,0.00,VWS V14.00,2013-02-09 23:03:00,
2013-02-09 18:06:00,23.0,22.3,30.40,ENE,67,6.0,7.0,97,0.00,,CLR,0.00,VWS V14.00,2013-02-09 23:06:00,
2013-02-09 18:07:00,23.0,22.3,30.40,ENE,67,6.0,7.0,97,0.00,,CLR,0.00,VWS V14.00,2013-02-09 23:07:00,
2013-02-09 18:08:00,23.0,22.3,30.40,ENE,67,5.0,5.0,97,0.00,,CLR,0.00,VWS V14.00,2013-02-09 23:08:00,
2013-02-09 18:11:00,23.0,22.3,30.40,ENE,67,4.0,6.0,97,0.00,,CLR,0.00,VWS V14.00,2013-02-09 23:11:00,
2013-02-09 18:13:00,23.0,22.3,30.40,NE,45,3.0,6.0,97,0.00,,CLR,0.00,VWS V14.00,2013-02-09 23:13:00,
2013-02-09 18:18:00,23.0,22.0,30.39,East,90,5.0,7.0,96,0.00,,CLR,0.00,VWS V14.00,2013-02-09 23:18:00,
2013-02-09 18:19:00,23.0,22.0,30.39,ENE,67,4.0,7.0,96,0.00,,CLR,0.00,VWS V14.00,2013-02-09 23:19:00,
2013-02-09 18:20:00,23.0,22.0,30.39,ENE,67,5.0,7.0,96,0.00,,CLR,0.00,VWS V14.00,2013-02-09 23:20:00,
2013-02-09 18:23:00,23.0,22.0,30.39,East,90,5.0,7.0,96,0.00,,CLR,0.00,VWS V14.00,2013-02-09 23:23:00,
2013-02-09 18:24:00,23.0,22.0,30.39,East,90,5.0,6.0,96,0.00,,CLR,0.00,VWS V14.00,2013-02-09 23:24:00,
2013-02-09 18:25:00,23.0,22.0,30.39,ENE,67,5.0,6.0,96,0.00,,CLR,0.00,VWS V14.00,2013-02-09 23:25:00,
2013-02-09 18:28:00,23.0,22.3,30.39,ENE,67,4.0,5.0,97,0.00,,CLR,0.00,VWS V14.00,2013-02-09 23:28:00,
2013-02-09 18:29:00,23.0,22.3,30.39,ENE,67,5.0,5.0,97,0.00,,CLR,0.00,VWS V14.00,2013-02-09 23:29:00,
2013-02-09 18:32:00,23.0,22.3,30.39,ENE,67,2.0,5.0,97,0.00,,CLR,0.00,VWS V14.00,2013-02-09 23:32:00,
2013-02-09 18:33:00,23.0,22.3,30.39,ENE,67,2.0,4.0,97,0.00,,CLR,0.00,VWS V14.00,2013-02-09 23:33:00,
2013-02-09 18:34:00,23.0,22.3,30.39,ENE,67,3.0,4.0,97,0.00,,CLR,0.00,VWS V14.00,2013-02-09 23:34:00,
2013-02-09 18:36:00,23.0,22.3,30.39,ENE,67,2.0,4.0,97,0.00,,CLR,0.00,VWS V14.00,2013-02-09 23:36:00,
2013-02-09 18:38:00,23.0,22.3,30.39,ENE,67,3.0,4.0,97,0.00,,CLR,0.00,VWS V14.00,2013-02-09 23:38:00,
2013-02-09 18:39:00,23.0,22.3,30.39,ENE,67,3.0,4.0,97,0.00,,CLR,0.00,VWS V14.00,2013-02-09 23:39:00,
2013-02-09 18:41:00,22.0,21.3,30.39,ENE,67,2.0,4.0,97,0.00,,CLR,0.00,VWS V14.00,2013-02-09 23:41:00,
2013-02-09 18:43:00,23.0,22.3,30.39,NE,45,2.0,4.0,97,0.00,,CLR,0.00,VWS V14.00,2013-02-09 23:43:00,
2013-02-09 18:44:00,23.0,22.3,30.39,NE,45,4.0,5.0,97,0.00,,CLR,0.00,VWS V14.00,2013-02-09 23:44:00,
2013-02-09 18:45:00,23.0,22.3,30.39,NE,45,4.0,5.0,97,0.00,,CLR,0.00,VWS V14.00,2013-02-09 23:45:00,
2013-02-09 18:47:00,23.0,22.3,30.39,NE,45,5.0,5.0,97,0.00,,CLR,0.00,VWS V14.00,2013-02-09 23:47:00,
2013-02-09 18:50:00,23.0,22.3,30.39,NE,45,5.0,6.0,97,0.00,,CLR,0.00,VWS V14.00,2013-02-09 23:50:00,
2013-02-09 18:51:00,23.0,22.5,30.39,ENE,67,6.0,6.0,98,0.00,,CLR,0.00,VWS V14.00,2013-02-09 23:51:00,
2013-02-09 18:54:00,23.0,22.5,30.39,NE,45,5.0,6.0,98,0.00,,CLR,0.00,VWS V14.00,2013-02-09 23:54:00,
2013-02-09 18:56:00,23.0,22.8,30.39,NE,45,4.0,6.0,99,0.00,,CLR,0.00,VWS V14.00,2013-02-09 23:56:00,
2013-02-09 18:57:00,23.0,22.8,30.39,ENE,67,4.0,6.0,99,0.00,,CLR,0.00,VWS V14.00,2013-02-09 23:57:00,
2013-02-09 19:00:00,22.0,21.8,30.39,NE,45,3.0,5.0,99,0.00,,CLR,0.00,VWS V14.00,2013-02-10 00:00:00,
2013-02-09 19:01:00,22.0,21.8,30.39,NE,45,4.0,5.0,99,0.00,,CLR,0.00,VWS V14.00,2013-02-10 00:01:00,
2013-02-09 19:02:00,22.0,21.8,30.39,NE,45,3.0,5.0,99,0.00,,CLR,0.00,VWS V14.00,2013-02-10 00:02:00,
2013-02-09 19:06:00,22.0,21.5,30.40,ENE,67,4.0,6.0,98,0.00,,CLR,0.00,VWS V14.00,2013-02-10 00:06:00,
2013-02-09 19:07:00,22.0,21.8,30.40,ENE,67,3.0,6.0,99,0.00,,CLR,0.00,VWS V14.00,2013-02-10 00:07:00,
2013-02-09 19:08:00,22.0,21.8,30.40,ENE,67,2.0,6.0,99,0.00,,CLR,0.00,VWS V14.00,2013-02-10 00:08:00,
2013-02-09 19:09:00,22.0,21.8,30.40,NE,45,4.0,6.0,99,0.00,,CLR,0.00,VWS V14.00,2013-02-10 00:09:00,
2013-02-09 19:13:00,22.0,21.8,30.40,NE,45,6.0,6.0,99,0.00,,CLR,0.00,VWS V14.00,2013-02-10 00:13:00,
2013-02-09 19:15:00,22.0,21.8,30.40,ENE,67,3.0,6.0,99,0.00,,CLR,0.00,VWS V14.00,2013-02-10 00:15:00,
2013-02-09 19:19:00,22.0,21.8,30.40,NE,45,4.0,6.0,99,0.00,,CLR,0.00,VWS V14.00,2013-02-10 00:19:00,
2013-02-09 19:20:00,22.0,21.8,30.40,NE,45,3.0,6.0,99,0.00,,CLR,0.00,VWS V14.00,2013-02-10 00:20:00,
2013-02-09 19:21:00,22.0,21.8,30.40,NE,45,5.0,6.0,99,0.00,,CLR,0.00,VWS V14.00,2013-02-10 00:21:00,
2013-02-09 19:22:00,22.0,21.8,30.40,NE,45,6.0,6.0,99,0.00,,CLR,0.00,VWS V14.00,2013-02-10 00:22:00,
2013-02-09 19:25:00,22.0,21.8,30.40,ENE,67,4.0,6.0,99,0.00,,CLR,0.00,VWS V14.00,2013-02-10 00:25:00,
2013-02-09 19:28:00,22.0,21.8,30.40,ENE,67,6.0,7.0,99,0.00,,CLR,0.00,VWS V14.00,2013-02-10 00:28:00,
2013-02-09 19:30:00,22.0,21.8,30.40,ENE,67,5.0,7.0,99,0.00,,CLR,0.00,VWS V14.00,2013-02-10 00:30:00,
2013-02-09 19:31:00,22.0,21.8,30.40,ENE,67,5.0,7.0,99,0.00,,CLR,0.00,VWS V14.00,2013-02-10 00:31:00,
2013-02-09 19:33:00,23.0,22.8,30.40,ENE,67,6.0,7.0,99,0.00,,CLR,0.00,VWS V14.00,2013-02-10 00:33:00,
2013-02-09 19:35:00,22.0,21.5,30.40,NE,45,5.0,7.0,99,0.00,,CLR,0.00,VWS V14.00,2013-02-10 00:35:00,
2013-02-09 19:36:00,22.0,21.5,30.40,NE,45,5.0,7.0,98,0.00,,CLR,0.00,VWS V14.00,2013-02-10 00:36:00,
2013-02-09 19:37:00,22.0,21.5,30.40,ENE,67,4.0,7.0,98,0.00,,CLR,0.00,VWS V14.00,2013-02-10 00:37:00,
2013-02-09 19:39:00,22.0,21.5,30.40,ENE,67,1.0,5.0,98,0.00,,CLR,0.00,VWS V14.00,2013-02-10 00:39:00,
2013-02-09 19:41:00,22.0,21.5,30.40,ENE,67,3.0,5.0,98,0.00,,CLR,0.00,VWS V14.00,2013-02-10 00:41:00,
2013-02-09 19:42:00,22.0,21.5,30.40,ENE,67,4.0,5.0,98,0.00,,CLR,0.00,VWS V14.00,2013-02-10 00:42:00,
2013-02-09 19:43:00,22.0,21.5,30.40,East,90,6.0,6.0,98,0.00,,CLR,0.00,VWS V14.00,2013-02-10 00:43:00,
2013-02-09 19:45:00,22.0,21.5,30.40,East,90,2.0,6.0,98,0.00,,CLR,0.00,VWS V14.00,2013-02-10 00:45:00,
2013-02-09 19:46:00,22.0,21.5,30.40,East,90,2.0,6.0,98,0.00,,CLR,0.00,VWS V14.00,2013-02-10 00:46:00,
2013-02-09 19:47:00,22.0,21.5,30.40,East,90,2.0,6.0,98,0.00,,CLR,0.00,VWS V14.00,2013-02-10 00:47:00,
2013-02-09 19:51:00,22.0,21.3,30.40,East,90,3.0,3.0,97,0.00,,CLR,0.00,VWS V14.00,2013-02-10 00:51:00,
2013-02-09 19:52:00,22.0,21.3,30.40,East,90,2.0,5.0,97,0.00,,CLR,0.00,VWS V14.00,2013-02-10 00:52:00,
2013-02-09 19:53:00,22.0,21.3,30.40,East,90,3.0,4.0,97,0.00,,CLR,0.00,VWS V14.00,2013-02-10 00:53:00,
2013-02-09 19:56:00,22.0,21.3,30.40,East,90,3.0,5.0,97,0.00,,CLR,0.00,VWS V14.00,2013-02-10 00:56:00,
2013-02-09 19:58:00,22.0,21.3,30.40,NE,45,5.0,6.0,97,0.00,,CLR,0.00,VWS V14.00,2013-02-10 00:58:00,
2013-02-09 19:59:00,22.0,21.3,30.40,East,90,5.0,6.0,97,0.00,,CLR,0.00,VWS V14.00,2013-02-10 00:59:00,
2013-02-09 20:00:00,22.0,21.5,30.40,East,90,2.0,6.0,98,0.00,,CLR,0.00,VWS V14.00,2013-02-10 01:00:00,
2013-02-09 20:02:00,22.0,21.5,30.40,ENE,67,2.0,6.0,98,0.00,,CLR,0.00,VWS V14.00,2013-02-10 01:02:00,
2013-02-09 20:04:00,22.0,21.8,30.40,East,90,3.0,5.0,99,0.00,,CLR,0.00,VWS V14.00,2013-02-10 01:04:00,
2013-02-09 20:05:00,22.0,21.8,30.40,East,90,3.0,5.0,99,0.00,,CLR,0.00,VWS V14.00,2013-02-10 01:05:00,
2013-02-09 20:08:00,22.0,21.8,30.40,East,90,1.0,2.0,99,0.00,,CLR,0.00,VWS V14.00,2013-02-10 01:08:00,
2013-02-09 20:09:00,22.0,21.8,30.40,NE,45,5.0,5.0,99,0.00,,CLR,0.00,VWS V14.00,2013-02-10 01:09:00,
2013-02-09 20:10:00,22.0,21.8,30.40,East,90,5.0,6.0,99,0.00,,CLR,0.00,VWS V14.00,2013-02-10 01:10:00,
2013-02-09 20:11:00,22.0,21.8,30.40,ENE,67,6.0,6.0,99,0.00,,CLR,0.00,VWS V14.00,2013-02-10 01:11:00,
2013-02-09 20:13:00,22.0,21.8,30.40,East,90,4.0,5.0,99,0.00,,CLR,0.00,VWS V14.00,2013-02-10 01:13:00,
2013-02-09 20:15:00,22.0,21.8,30.40,East,90,1.0,5.0,99,0.00,,CLR,0.00,VWS V14.00,2013-02-10 01:15:00,
2013-02-09 20:16:00,22.0,21.8,30.40,East,90,5.0,5.0,99,0.00,,CLR,0.00,VWS V14.00,2013-02-10 01:16:00,
2013-02-09 20:19:00,22.0,21.8,30.40,East,90,4.0,4.0,99,0.00,,CLR,0.00,VWS V14.00,2013-02-10 01:19:00,
2013-02-09 20:20:00,22.0,21.8,30.40,East,90,2.0,4.0,99,0.00,,CLR,0.00,VWS V14.00,2013-02-10 01:20:00,
2013-02-09 20:21:00,22.0,21.8,30.40,East,90,3.0,4.0,99,0.00,,CLR,0.00,VWS V14.00,2013-02-10 01:21:00,
2013-02-09 20:25:00,22.0,21.8,30.40,East,90,4.0,5.0,99,0.00,,CLR,0.00,VWS V14.00,2013-02-10 01:25:00,
2013-02-09 20:27:00,22.0,21.8,30.40,East,90,4.0,5.0,99,0.00,,CLR,0.00,VWS V14.00,2013-02-10 01:27:00,
2013-02-09 20:28:00,22.0,22.0,30.40,East,90,2.0,3.0,100,0.00,,CLR,0.00,VWS V14.00,2013-02-10 01:28:00,
2013-02-09 20:32:00,21.0,21.0,30.40,ESE,112,2.0,4.0,100,0.00,,CLR,0.00,VWS V14.00,2013-02-10 01:32:00,
2013-02-09 20:33:00,21.0,21.0,30.40,SE,135,2.0,3.0,100,0.00,,CLR,0.00,VWS V14.00,2013-02-10 01:33:00,
2013-02-09 20:34:00,21.0,21.0,30.40,SE,135,2.0,3.0,100,0.00,,CLR,0.00,VWS V14.00,2013-02-10 01:34:00,
2013-02-09 20:38:00,21.0,21.0,30.40,ESE,112,1.0,4.0,100,0.00,,CLR,0.00,VWS V14.00,2013-02-10 01:38:00,
2013-02-09 20:39:00,21.0,21.0,30.40,ESE,112,0.0,4.0,100,0.00,,CLR,0.00,VWS V14.00,2013-02-10 01:39:00,
2013-02-09 20:41:00,21.0,21.0,30.40,East,90,3.0,5.0,100,0.00,,CLR,0.00,VWS V14.00,2013-02-10 01:41:00,
2013-02-09 20:44:00,21.0,21.0,30.40,ESE,112,3.0,4.0,100,0.00,,CLR,0.00,VWS V14.00,2013-02-10 01:44:00,
2013-02-09 20:45:00,21.0,21.0,30.40,SE,135,2.0,4.0,100,0.00,,CLR,0.00,VWS V14.00,2013-02-10 01:45:00,
2013-02-09 20:47:00,21.0,21.0,30.40,SE,135,3.0,5.0,100,0.00,,CLR,0.00,VWS V14.00,2013-02-10 01:47:00,
2013-02-09 20:49:00,21.0,21.0,30.40,ESE,112,5.0,5.0,100,0.00,,CLR,0.00,VWS V14.00,2013-02-10 01:49:00,
2013-02-09 20:50:00,21.0,21.0,30.40,SE,135,1.0,5.0,100,0.00,,CLR,0.00,VWS V14.00,2013-02-10 01:50:00,
2013-02-09 20:51:00,21.0,21.0,30.40,ESE,112,3.0,5.0,100,0.00,,CLR,0.00,VWS V14.00,2013-02-10 01:51:00,
2013-02-09 20:54:00,21.0,21.0,30.39,SE,135,2.0,6.0,100,0.00,,CLR,0.00,VWS V14.00,2013-02-10 01:54:00,
2013-02-09 20:56:00,21.0,21.0,30.39,SE,135,3.0,7.0,100,0.00,,CLR,0.00,VWS V14.00,2013-02-10 01:56:00,
2013-02-09 20:57:00,21.0,21.0,30.39,SE,135,3.0,7.0,100,0.00,,CLR,0.00,VWS V14.00,2013-02-10 01:57:00,
2013-02-09 21:02:00,21.0,21.0,30.39,SE,135,3.0,5.0,100,0.00,,CLR,0.00,VWS V14.00,2013-02-10 02:02:00,
2013-02-09 21:04:00,21.0,21.0,30.39,SE,135,3.0,6.0,100,0.00,,CLR,0.00,VWS V14.00,2013-02-10 02:04:00,
2013-02-09 21:07:00,21.0,21.0,30.39,SE,135,3.0,6.0,100,0.00,,CLR,0.00,VWS V14.00,2013-02-10 02:07:00,
2013-02-09 21:08:00,21.0,21.0,30.39,SE,135,3.0,6.0,100,0.00,,CLR,0.00,VWS V14.00,2013-02-10 02:08:00,
2013-02-09 21:09:00,21.0,21.0,30.39,SE,135,3.0,4.0,100,0.00,,CLR,0.00,VWS V14.00,2013-02-10 02:09:00,
2013-02-09 21:13:00,21.0,21.0,30.39,SE,135,2.0,4.0,100,0.00,,CLR,0.00,VWS V14.00,2013-02-10 02:13:00,
2013-02-09 21:14:00,21.0,21.0,30.39,SE,135,1.0,3.0,100,0.00,,CLR,0.00,VWS V14.00,2013-02-10 02:14:00,
2013-02-09 21:18:00,20.0,20.0,30.39,SE,135,1.0,3.0,100,0.00,,CLR,0.00,VWS V14.00,2013-02-10 02:18:00,
2013-02-09 21:19:00,20.0,20.0,30.39,SE,135,2.0,3.0,100,0.00,,CLR,0.00,VWS V14.00,2013-02-10 02:19:00,
2013-02-09 21:23:00,20.0,20.0,30.39,SE,135,2.0,4.0,100,0.00,,CLR,0.00,VWS V14.00,2013-02-10 02:23:00,
2013-02-09 21:24:00,20.0,20.0,30.39,SE,135,3.0,3.0,100,0.00,,CLR,0.00,VWS V14.00,2013-02-10 02:24:00,
2013-02-09 21:25:00,20.0,20.0,30.39,SE,135,2.0,3.0,100,0.00,,CLR,0.00,VWS V14.00,2013-02-10 02:25:00,
2013-02-09 21:26:00,20.0,20.0,30.39,SE,135,2.0,3.0,100,0.00,,CLR,0.00,VWS V14.00,2013-02-10 02:26:00,
2013-02-09 21:28:00,20.0,20.0,30.39,SE,135,2.0,3.0,100,0.00,,CLR,0.00,VWS V14.00,2013-02-10 02:28:00,
2013-02-09 21:30:00,20.0,20.0,30.39,SE,135,0.0,2.0,100,0.00,,CLR,0.00,VWS V14.00,2013-02-10 02:30:00,
2013-02-09 21:31:00,20.0,20.0,30.39,SE,135,0.0,2.0,100,0.00,,CLR,0.00,VWS V14.00,2013-02-10 02:31:00,
2013-02-09 21:32:00,20.0,20.0,30.39,SE,135,1.0,2.0,100,0.00,,CLR,0.00,VWS V14.00,2013-02-10 02:32:00,
2013-02-09 21:33:00,20.0,20.0,30.39,SE,135,0.0,2.0,100,0.00,,CLR,0.00,VWS V14.00,2013-02-10 02:33:00,
2013-02-09 21:36:00,20.0,20.0,30.38,SE,135,0.0,2.0,100,0.00,,CLR,0.00,VWS V14.00,2013-02-10 02:36:00,
2013-02-09 21:37:00,20.0,20.0,30.38,SE,135,0.0,2.0,100,0.00,,CLR,0.00,VWS V14.00,2013-02-10 02:37:00,
2013-02-09 21:38:00,19.0,19.0,30.38,SE,135,0.0,2.0,100,0.00,,CLR,0.00,VWS V14.00,2013-02-10 02:38:00,
2013-02-09 21:41:00,19.0,19.0,30.38,SE,135,0.0,0.0,100,0.00,,CLR,0.00,VWS V14.00,2013-02-10 02:41:00,
2013-02-09 21:43:00,19.0,19.0,30.38,SE,135,0.0,0.0,100,0.00,,CLR,0.00,VWS V14.00,2013-02-10 02:43:00,
2013-02-09 21:44:00,19.0,19.0,30.38,SE,135,0.0,0.0,100,0.00,,CLR,0.00,VWS V14.00,2013-02-10 02:44:00,
2013-02-09 21:47:00,19.0,19.0,30.38,SE,135,0.0,0.0,100,0.00,,CLR,0.00,VWS V14.00,2013-02-10 02:47:00,
2013-02-09 21:49:00,19.0,19.0,30.38,SE,135,0.0,0.0,100,0.00,,CLR,0.00,VWS V14.00,2013-02-10 02:49:00,
2013-02-09 21:50:00,19.0,19.0,30.38,SE,135,1.0,1.0,100,0.00,,CLR,0.00,VWS V14.00,2013-02-10 02:50:00,
2013-02-09 21:51:00,19.0,19.0,30.38,SE,135,2.0,3.0,100,0.00,,CLR,0.00,VWS V14.00,2013-02-10 02:51:00,
2013-02-09 21:52:00,19.0,19.0,30.38,SE,135,1.0,3.0,100,0.00,,CLR,0.00,VWS V14.00,2013-02-10 02:52:00,
2013-02-09 21:56:00,19.0,19.0,30.37,SE,135,1.0,4.0,100,0.00,,CLR,0.00,VWS V14.00,2013-02-10 02:56:00,
2013-02-09 21:57:00,19.0,19.0,30.37,SE,135,1.0,4.0,100,0.00,,CLR,0.00,VWS V14.00,2013-02-10 02:57:00,
2013-02-09 21:58:00,19.0,19.0,30.37,SE,135,2.0,4.0,100,0.00,,CLR,0.00,VWS V14.00,2013-02-10 02:58:00,
2013-02-09 22:01:00,20.0,20.0,30.37,SE,135,5.0,5.0,100,0.00,,CLR,0.00,VWS V14.00,2013-02-10 03:01:00,
2013-02-09 22:02:00,20.0,20.0,30.37,SE,135,4.0,6.0,100,0.00,,CLR,0.00,VWS V14.00,2013-02-10 03:02:00,
2013-02-09 22:05:00,20.0,20.0,30.37,SE,135,6.0,6.0,100,0.00,,CLR,0.00,VWS V14.00,2013-02-10 03:05:00,
2013-02-09 22:06:00,21.0,21.0,30.37,SE,135,5.0,8.0,100,0.00,,CLR,0.00,VWS V14.00,2013-02-10 03:06:00,
2013-02-09 22:07:00,21.0,21.0,30.37,SSE,157,3.0,8.0,100,0.00,,CLR,0.00,VWS V14.00,2013-02-10 03:07:00,
2013-02-09 22:10:00,21.0,21.0,30.37,SE,135,2.0,5.0,100,0.00,,CLR,0.00,VWS V14.00,2013-02-10 03:10:00,
2013-02-09 22:11:00,21.0,21.0,30.37,SE,135,5.0,5.0,100,0.00,,CLR,0.00,VWS V14.00,2013-02-10 03:11:00,
2013-02-09 22:12:00,21.0,21.0,30.37,SE,135,4.0,5.0,100,0.00,,CLR,0.00,VWS V14.00,2013-02-10 03:12:00,
2013-02-09 22:16:00,21.0,21.0,30.37,SE,135,3.0,5.0,100,0.00,,CLR,0.00,VWS V14.00,2013-02-10 03:16:00,
2013-02-09 22:17:00,21.0,21.0,30.37,SSE,157,5.0,6.0,100,0.00,,CLR,0.00,VWS V14.00,2013-02-10 03:17:00,
2013-02-09 22:18:00,21.0,21.0,30.37,SSE,157,6.0,6.0,100,0.00,,CLR,0.00,VWS V14.00,2013-02-10 03:18:00,
2013-02-09 22:21:00,21.0,21.0,30.37,SSE,157,6.0,7.0,100,0.00,,CLR,0.00,VWS V14.00,2013-02-10 03:21:00,
2013-02-09 22:22:00,21.0,21.0,30.37,SSE,157,5.0,7.0,100,0.00,,CLR,0.00,VWS V14.00,2013-02-10 03:22:00,
2013-02-09 22:23:00,21.0,21.0,30.37,SSE,157,4.0,7.0,100,0.00,,CLR,0.00,VWS V14.00,2013-02-10 03:23:00,
2013-02-09 22:26:00,21.0,21.0,30.36,SE,135,3.0,6.0,100,0.00,,CLR,0.00,VWS V14.00,2013-02-10 03:26:00,
2013-02-09 22:27:00,21.0,21.0,30.36,SE,135,5.0,6.0,100,0.00,,CLR,0.00,VWS V14.00,2013-02-10 03:27:00,
2013-02-09 22:28:00,21.0,21.0,30.36,SE,135,5.0,6.0,100,0.00,,CLR,0.00,VWS V14.00,2013-02-10 03:28:00,
2013-02-09 22:29:00,21.0,21.0,30.36,SE,135,5.0,6.0,100,0.00,,CLR,0.00,VWS V14.00,2013-02-10 03:29:00,
2013-02-09 22:33:00,21.0,21.0,30.36,SE,135,5.0,7.0,100,0.00,,CLR,0.00,VWS V14.00,2013-02-10 03:33:00,
2013-02-09 22:35:00,21.0,21.0,30.36,SE,135,3.0,7.0,100,0.00,,CLR,0.00,VWS V14.00,2013-02-10 03:35:00,
2013-02-09 22:38:00,21.0,21.0,30.36,SSE,157,3.0,5.0,100,0.00,,CLR,0.00,VWS V14.00,2013-02-10 03:38:00,
2013-02-09 22:40:00,21.0,21.0,30.36,SE,135,3.0,5.0,100,0.00,,CLR,0.00,VWS V14.00,2013-02-10 03:40:00,
2013-02-09 22:43:00,21.0,21.0,30.35,SE,135,4.0,5.0,100,0.00,,CLR,0.00,VWS V14.00,2013-02-10 03:43:00,
2013-02-09 22:44:00,21.0,21.0,30.35,ESE,112,4.0,6.0,100,0.00,,CLR,0.00,VWS V14.00,2013-02-10 03:44:00,
2013-02-09 22:46:00,21.0,21.0,30.35,SE,135,3.0,6.0,100,0.00,,CLR,0.00,VWS V14.00,2013-02-10 03:46:00,
2013-02-09 22:49:00,21.0,21.0,30.35,SE,135,2.0,4.0,100,0.00,,CLR,0.00,VWS V14.00,2013-02-10 03:49:00,
2013-02-09 22:51:00,21.0,21.0,30.35,SE,135,3.0,5.0,100,0.00,,CLR,0.00,VWS V14.00,2013-02-10 03:51:00,
2013-02-09 22:53:00,21.0,21.0,30.35,ESE,112,3.0,5.0,100,0.00,,CLR,0.00,VWS V14.00,2013-02-10 03:53:00,
2013-02-09 22:55:00,21.0,21.0,30.35,ESE,112,4.0,5.0,100,0.00,,CLR,0.00,VWS V14.00,2013-02-10 03:55:00,
2013-02-09 22:56:00,21.0,21.0,30.35,ESE,112,3.0,5.0,100,0.00,,CLR,0.00,VWS V14.00,2013-02-10 03:56:00,
2013-02-09 22:58:00,21.0,21.0,30.35,SE,135,3.0,3.0,100,0.00,,CLR,0.00,VWS V14.00,2013-02-10 03:58:00,
2013-02-09 23:00:00,21.0,21.0,30.35,SE,135,3.0,4.0,100,0.00,,CLR,0.00,VWS V14.00,2013-02-10 04:00:00,
2013-02-09 23:01:00,21.0,21.0,30.35,SE,135,2.0,4.0,100,0.00,,CLR,0.00,VWS V14.00,2013-02-10 04:01:00,
2013-02-09 23:04:00,21.0,21.0,30.34,SE,135,2.0,3.0,100,0.00,,CLR,0.00,VWS V14.00,2013-02-10 04:04:00,
2013-02-09 23:06:00,21.0,21.0,30.34,SE,135,0.0,3.0,100,0.00,,CLR,0.00,VWS V14.00,2013-02-10 04:06:00,
2013-02-09 23:07:00,21.0,21.0,30.34,SE,135,0.0,3.0,100,0.00,,CLR,0.00,VWS V14.00,2013-02-10 04:07:00,
2013-02-09 23:09:00,21.0,21.0,30.34,SE,135,0.0,0.0,100,0.00,,CLR,0.00,VWS V14.00,2013-02-10 04:09:00,
2013-02-09 23:12:00,20.0,20.0,30.34,SE,135,1.0,1.0,100,0.00,,CLR,0.00,VWS V14.00,2013-02-10 04:12:00,
2013-02-09 23:14:00,20.0,20.0,30.34,SE,135,3.0,5.0,100,0.00,,CLR,0.00,VWS V14.00,2013-02-10 04:14:00,
2013-02-09 23:16:00,20.0,20.0,30.34,SE,135,3.0,5.0,100,0.00,,CLR,0.00,VWS V14.00,2013-02-10 04:16:00,
2013-02-09 23:17:00,20.0,20.0,30.34,SE,135,2.0,5.0,100,0.00,,CLR,0.00,VWS V14.00,2013-02-10 04:17:00,
2013-02-09 23:18:00,20.0,20.0,30.34,SE,135,1.0,1.0,100,0.00,,CLR,0.00,VWS V14.00,2013-02-10 04:18:00,
2013-02-09 23:20:00,20.0,20.0,30.34,SE,135,1.0,1.0,100,0.00,,CLR,0.00,VWS V14.00,2013-02-10 04:20:00,
2013-02-09 23:22:00,20.0,20.0,30.34,SE,135,1.0,2.0,100,0.00,,CLR,0.00,VWS V14.00,2013-02-10 04:22:00,
2013-02-09 23:25:00,20.0,20.0,30.34,SE,135,1.0,2.0,100,0.00,,CLR,0.00,VWS V14.00,2013-02-10 04:25:00,
2013-02-09 23:26:00,20.0,20.0,30.34,SE,135,1.0,2.0,100,0.00,,CLR,0.00,VWS V14.00,2013-02-10 04:26:00,
2013-02-09 23:27:00,20.0,20.0,30.34,SE,135,0.0,2.0,100,0.00,,CLR,0.00,VWS V14.00,2013-02-10 04:27:00,
2013-02-09 23:31:00,21.0,21.0,30.34,SE,135,0.0,1.0,100,0.00,,CLR,0.00,VWS V14.00,2013-02-10 04:31:00,
2013-02-09 23:32:00,21.0,21.0,30.34,SE,135,0.0,1.0,100,0.00,,CLR,0.00,VWS V14.00,2013-02-10 04:32:00,
2013-02-09 23:33:00,21.0,21.0,30.34,SE,135,0.0,0.0,100,0.00,,CLR,0.00,VWS V14.00,2013-02-10 04:33:00,
2013-02-09 23:37:00,21.0,21.0,30.34,SE,135,0.0,0.0,100,0.00,,CLR,0.00,VWS V14.00,2013-02-10 04:37:00,
2013-02-09 23:38:00,21.0,21.0,30.34,SE,135,2.0,2.0,100,0.00,,CLR,0.00,VWS V14.00,2013-02-10 04:38:00,
2013-02-09 23:39:00,21.0,21.0,30.34,SE,135,1.0,2.0,100,0.00,,CLR,0.00,VWS V14.00,2013-02-10 04:39:00,
2013-02-09 23:40:00,21.0,21.0,30.34,SE,135,1.0,2.0,100,0.00,,CLR,0.00,VWS V14.00,2013-02-10 04:40:00,
2013-02-09 23:42:00,21.0,21.0,30.34,East,90,3.0,5.0,100,0.00,,CLR,0.00,VWS V14.00,2013-02-10 04:42:00,
2013-02-09 23:43:00,21.0,21.0,30.34,East,90,5.0,5.0,100,0.00,,CLR,0.00,VWS V14.00,2013-02-10 04:43:00,
2013-02-09 23:44:00,21.0,21.0,30.34,East,90,4.0,5.0,100,0.00,,CLR,0.00,VWS V14.00,2013-02-10 04:44:00,
2013-02-09 23:47:00,21.0,21.0,30.34,East,90,2.0,5.0,100,0.00,,CLR,0.00,VWS V14.00,2013-02-10 04:47:00,
2013-02-09 23:48:00,21.0,21.0,30.34,East,90,1.0,2.0,100,0.00,,CLR,0.00,VWS V14.00,2013-02-10 04:48:00,
2013-02-09 23:49:00,21.0,21.0,30.34,East,90,2.0,2.0,100,0.00,,CLR,0.00,VWS V14.00,2013-02-10 04:49:00,
2013-02-09 23:50:00,21.0,21.0,30.34,East,90,2.0,2.0,100,0.00,,CLR,0.00,VWS V14.00,2013-02-10 04:50:00,
2013-02-09 23:52:00,21.0,21.0,30.34,East,90,2.0,3.0,100,0.00,,CLR,0.00,VWS V14.00,2013-02-10 04:52:00,
2013-02-09 23:54:00,21.0,21.0,30.34,East,90,2.0,3.0,100,0.00,,CLR,0.00,VWS V14.00,2013-02-10 04:54:00,
2013-02-09 23:55:00,21.0,21.0,30.34,East,90,2.0,3.0,100,0.00,,CLR,0.00,VWS V14.00,2013-02-10 04:55:00,
2013-02-09 23:56:00,21.0,21.0,30.34,East,90,3.0,3.0,100,0.00,,CLR,0.00,VWS V14.00,2013-02-10 04:56:00,
2013-02-09 23:58:00,21.0,21.0,30.34,East,90,2.0,3.0,100,0.00,,CLR,0.00,VWS V14.00,2013-02-10 04:58:00,
2013-02-09 23:59:00,21.0,21.0,30.34,East,90,2.0,3.0,100,0.00,,CLR,0.00,VWS V14.00,2013-02-10 04:59:00,